| time (UTC) | temp F | wind direction | speed MPH | gust MPH | rain 1hr in | rain 24hr in | rain mn in | humidity % | barometer mb |
| 20260906111803 | 57 | 0 | 0.0 | 0.0 | 0.00 | 0.00 | 0.00 | 80 | 1019.0 |
| 20260906111603 | 58 | 0 | 0.0 | 0.0 | 0.00 | 0.00 | 0.00 | 79 | 1019.0 |
| 20260906111424 | 58 | 0 | 0.0 | 0.0 | 0.00 | 0.00 | 0.00 | 79 | 1019.0 |
| 20260906111203 | 58 | 0 | 0.0 | 0.0 | 0.00 | 0.00 | 0.00 | 79 | 1019.1 |
| 20260906111003 | 57 | 0 | 0.0 | 0.0 | 0.00 | 0.00 | 0.00 | 79 | 1019.0 |
| 20260906110803 | 57 | 0 | 0.0 | 0.0 | 0.00 | 0.00 | 0.00 | 79 | 1019.0 |
| 20260906110624 | 57 | 0 | 0.0 | 0.0 | 0.00 | 0.00 | 0.00 | 79 | 1019.0 |
| 20260906110424 | 57 | 0 | 0.0 | 0.0 | 0.00 | 0.00 | 0.00 | 79 | 1019.0 |
| 20260906110203 | 58 | 0 | 0.0 | 0.0 | 0.00 | 0.00 | 0.00 | 79 | 1018.9 |
| 20260906110003 | 58 | 0 | 0.0 | 0.0 | 0.00 | 0.00 | 0.00 | 79 | 1018.9 |
| 20260906105803 | 58 | 0 | 0.0 | 0.0 | 0.00 | 0.00 | 0.00 | 79 | 1018.9 |
| 20260906105603 | 57 | 0 | 0.0 | 0.0 | 0.00 | 0.00 | 0.00 | 79 | 1018.9 |
| 20260906105403 | 58 | 0 | 0.0 | 0.0 | 0.00 | 0.00 | 0.00 | 79 | 1018.8 |
| 20260906105203 | 58 | 0 | 0.0 | 0.0 | 0.00 | 0.00 | 0.00 | 79 | 1018.8 |
| 20260906105003 | 58 | 0 | 0.0 | 0.0 | 0.00 | 0.00 | 0.00 | 79 | 1018.7 |
| 20260906104824 | 58 | 0 | 0.0 | 0.0 | 0.00 | 0.00 | 0.00 | 79 | 1018.7 |
| 20260906104603 | 58 | 0 | 0.0 | 0.0 | 0.00 | 0.00 | 0.00 | 79 | 1018.7 |
| 20260906104424 | 58 | 0 | 0.0 | 0.0 | 0.00 | 0.00 | 0.00 | 79 | 1018.7 |
| 20260906104224 | 58 | 0 | 0.0 | 0.0 | 0.00 | 0.00 | 0.00 | 79 | 1018.7 |
| 20260906104024 | 58 | 0 | 0.0 | 0.0 | 0.00 | 0.00 | 0.00 | 79 | 1018.6 |
| 20260906103824 | 58 | 0 | 0.0 | 0.0 | 0.00 | 0.00 | 0.00 | 79 | 1018.6 |
| 20260906103603 | 58 | 0 | 0.0 | 0.0 | 0.00 | 0.00 | 0.00 | 79 | 1018.6 |
| 20260906103403 | 58 | 0 | 0.0 | 0.0 | 0.00 | 0.00 | 0.00 | 79 | 1018.5 |
| 20260906103224 | 58 | 0 | 0.0 | 0.0 | 0.00 | 0.00 | 0.00 | 79 | 1018.6 |
| 20260906103003 | 58 | 0 | 0.0 | 0.0 | 0.00 | 0.00 | 0.00 | 79 | 1018.5 |
| 20260906102824 | 58 | 0 | 0.0 | 0.0 | 0.00 | 0.00 | 0.00 | 79 | 1018.5 |
| 20260906102603 | 58 | 0 | 0.0 | 0.0 | 0.00 | 0.00 | 0.00 | 79 | 1018.5 |
| 20260906102403 | 58 | 0 | 0.0 | 0.0 | 0.00 | 0.00 | 0.00 | 79 | 1018.6 |
| 20260906102203 | 58 | 0 | 0.0 | 0.0 | 0.00 | 0.00 | 0.00 | 79 | 1018.5 |
| 20260906102003 | 58 | 0 | 0.0 | 0.0 | 0.00 | 0.00 | 0.00 | 79 | 1018.6 |
| 20260906101803 | 58 | 0 | 0.0 | 0.0 | 0.00 | 0.00 | 0.00 | 79 | 1018.6 |
| 20260906101603 | 58 | 0 | 0.0 | 0.0 | 0.00 | 0.00 | 0.00 | 79 | 1018.7 |
| 20260906101403 | 58 | 0 | 0.0 | 0.0 | 0.00 | 0.00 | 0.00 | 78 | 1018.6 |
| 20260906101203 | 58 | 0 | 0.0 | 0.0 | 0.00 | 0.00 | 0.00 | 79 | 1018.6 |
| 20260906101003 | 58 | 203 | 0.0 | 1.0 | 0.00 | 0.00 | 0.00 | 78 | 1018.6 |
| 20260906100803 | 58 | 203 | 0.0 | 1.0 | 0.00 | 0.00 | 0.00 | 78 | 1018.6 |
| 20260906100603 | 58 | 203 | 0.0 | 1.0 | 0.00 | 0.00 | 0.00 | 78 | 1018.6 |
| 20260906100403 | 58 | 203 | 0.0 | 1.0 | 0.00 | 0.00 | 0.00 | 78 | 1018.5 |
| 20260906100203 | 58 | 203 | 0.0 | 1.0 | 0.00 | 0.00 | 0.00 | 78 | 1018.6 |
| 20260906100003 | 58 | 0 | 0.0 | 0.0 | 0.00 | 0.00 | 0.00 | 78 | 1018.6 |
| 20260906095803 | 58 | 0 | 0.0 | 0.0 | 0.00 | 0.00 | 0.00 | 78 | 1018.5 |
| 20260906095603 | 58 | 0 | 0.0 | 0.0 | 0.00 | 0.00 | 0.00 | 78 | 1018.5 |
| 20260906095403 | 58 | 0 | 0.0 | 0.0 | 0.00 | 0.00 | 0.00 | 78 | 1018.5 |
| 20260906095203 | 58 | 0 | 0.0 | 0.0 | 0.00 | 0.00 | 0.00 | 78 | 1018.5 |
| 20260906095003 | 59 | 0 | 0.0 | 0.0 | 0.00 | 0.00 | 0.00 | 78 | 1018.4 |
| 20260906094824 | 59 | 0 | 0.0 | 0.0 | 0.00 | 0.00 | 0.00 | 78 | 1018.4 |
| 20260906094603 | 59 | 0 | 0.0 | 0.0 | 0.00 | 0.00 | 0.00 | 78 | 1018.5 |
| 20260906094403 | 59 | 0 | 0.0 | 0.0 | 0.00 | 0.00 | 0.00 | 78 | 1018.5 |
| 20260906094203 | 59 | 0 | 0.0 | 0.0 | 0.00 | 0.00 | 0.00 | 78 | 1018.5 |
| 20260906094003 | 59 | 0 | 0.0 | 0.0 | 0.00 | 0.00 | 0.00 | 78 | 1018.4 |
| 20260906093803 | 59 | 0 | 0.0 | 0.0 | 0.00 | 0.00 | 0.00 | 78 | 1018.4 |
| 20260906093603 | 59 | 190 | 0.0 | 4.0 | 0.00 | 0.00 | 0.00 | 78 | 1018.4 |
| 20260906093403 | 59 | 191 | 0.0 | 4.0 | 0.00 | 0.00 | 0.00 | 78 | 1018.3 |
| 20260906093203 | 59 | 191 | 0.0 | 4.0 | 0.00 | 0.00 | 0.00 | 78 | 1018.3 |
| 20260906093003 | 59 | 191 | 0.0 | 4.0 | 0.00 | 0.00 | 0.00 | 78 | 1018.2 |
| 20260906092803 | 59 | 191 | 0.0 | 4.0 | 0.00 | 0.00 | 0.00 | 78 | 1018.2 |
| 20260906092603 | 59 | 191 | 0.0 | 4.0 | 0.00 | 0.00 | 0.00 | 78 | 1018.2 |
| 20260906092403 | 59 | 191 | 0.0 | 3.0 | 0.00 | 0.00 | 0.00 | 78 | 1018.2 |
| 20260906092203 | 59 | 192 | 0.0 | 3.0 | 0.00 | 0.00 | 0.00 | 78 | 1018.3 |
| 20260906092003 | 59 | 200 | 0.0 | 1.0 | 0.00 | 0.00 | 0.00 | 78 | 1018.3 |
| 20260906091803 | 60 | 200 | 0.0 | 1.0 | 0.00 | 0.00 | 0.00 | 78 | 1018.3 |
| 20260906091603 | 60 | 200 | 0.0 | 1.0 | 0.00 | 0.00 | 0.00 | 78 | 1018.4 |
| 20260906091403 | 60 | 200 | 0.0 | 1.0 | 0.00 | 0.00 | 0.00 | 78 | 1018.4 |
| 20260906091203 | 60 | 192 | 0.0 | 1.0 | 0.00 | 0.00 | 0.00 | 78 | 1018.4 |
| 20260906091024 | 60 | 0 | 0.0 | 0.0 | 0.00 | 0.00 | 0.00 | 78 | 1018.4 |
| 20260906090803 | 60 | 0 | 0.0 | 0.0 | 0.00 | 0.00 | 0.00 | 78 | 1018.4 |
| 20260906090603 | 60 | 0 | 0.0 | 0.0 | 0.00 | 0.00 | 0.00 | 78 | 1018.5 |
| 20260906090403 | 60 | 0 | 0.0 | 0.0 | 0.00 | 0.00 | 0.00 | 78 | 1018.5 |
| 20260906090203 | 60 | 0 | 0.0 | 0.0 | 0.00 | 0.00 | 0.00 | 78 | 1018.4 |
| 20260906090004 | 60 | 0 | 0.0 | 0.0 | 0.00 | 0.00 | 0.00 | 78 | 1018.4 |
| 20260906085803 | 60 | 193 | 0.0 | 2.0 | 0.00 | 0.00 | 0.00 | 78 | 1018.3 |
| 20260906085603 | 60 | 190 | 1.0 | 5.0 | 0.00 | 0.00 | 0.00 | 78 | 1018.4 |
| 20260906085403 | 60 | 188 | 1.0 | 5.0 | 0.00 | 0.00 | 0.00 | 78 | 1018.4 |
| 20260906085203 | 60 | 187 | 2.0 | 5.0 | 0.00 | 0.00 | 0.00 | 78 | 1018.4 |
| 20260906085003 | 60 | 185 | 2.0 | 5.0 | 0.00 | 0.00 | 0.00 | 78 | 1018.4 |
| 20260906084803 | 60 | 183 | 3.0 | 7.0 | 0.00 | 0.00 | 0.00 | 78 | 1018.3 |
| 20260906084603 | 60 | 180 | 3.0 | 7.0 | 0.00 | 0.00 | 0.00 | 78 | 1018.3 |
| 20260906084403 | 60 | 179 | 2.0 | 7.0 | 0.00 | 0.00 | 0.00 | 78 | 1018.3 |
| 20260906084203 | 60 | 177 | 2.0 | 7.0 | 0.00 | 0.00 | 0.00 | 78 | 1018.3 |
| 20260906084003 | 60 | 178 | 1.0 | 7.0 | 0.00 | 0.00 | 0.00 | 78 | 1018.2 |
| 20260906083803 | 60 | 177 | 1.0 | 4.0 | 0.00 | 0.00 | 0.00 | 78 | 1018.2 |
| 20260906083603 | 61 | 191 | 0.0 | 4.0 | 0.00 | 0.00 | 0.00 | 78 | 1018.3 |
| 20260906083403 | 61 | 193 | 0.0 | 4.0 | 0.00 | 0.00 | 0.00 | 78 | 1018.3 |
| 20260906083224 | 61 | 193 | 0.0 | 4.0 | 0.00 | 0.00 | 0.00 | 78 | 1018.3 |
| 20260906083003 | 61 | 0 | 0.0 | 0.0 | 0.00 | 0.00 | 0.00 | 79 | 1018.2 |
| 20260906082803 | 61 | 0 | 0.0 | 0.0 | 0.00 | 0.00 | 0.00 | 78 | 1018.3 |
| 20260906082603 | 61 | 0 | 0.0 | 0.0 | 0.00 | 0.00 | 0.00 | 79 | 1018.2 |
| 20260906082403 | 61 | 0 | 0.0 | 0.0 | 0.00 | 0.00 | 0.00 | 79 | 1018.2 |
| 20260906082203 | 61 | 0 | 0.0 | 0.0 | 0.00 | 0.00 | 0.00 | 79 | 1018.2 |
| 20260906082024 | 61 | 0 | 0.0 | 0.0 | 0.00 | 0.00 | 0.00 | 79 | 1018.2 |
| 20260906081803 | 61 | 0 | 0.0 | 0.0 | 0.00 | 0.00 | 0.00 | 79 | 1018.2 |
| 20260906081603 | 61 | 190 | 0.0 | 4.0 | 0.00 | 0.00 | 0.00 | 78 | 1018.2 |
| 20260906081403 | 61 | 190 | 0.0 | 4.0 | 0.00 | 0.00 | 0.00 | 78 | 1018.2 |
| 20260906081203 | 61 | 190 | 0.0 | 4.0 | 0.00 | 0.00 | 0.00 | 78 | 1018.2 |
| 20260906081024 | 62 | 190 | 0.0 | 4.0 | 0.00 | 0.00 | 0.00 | 78 | 1018.2 |
| 20260906080824 | 62 | 190 | 0.0 | 4.0 | 0.00 | 0.00 | 0.00 | 78 | 1018.2 |
| 20260906080603 | 62 | 0 | 0.0 | 0.0 | 0.00 | 0.00 | 0.00 | 78 | 1018.2 |
| 20260906080403 | 62 | 0 | 0.0 | 0.0 | 0.00 | 0.00 | 0.00 | 78 | 1018.2 |
| 20260906080224 | 62 | 0 | 0.0 | 0.0 | 0.00 | 0.00 | 0.00 | 78 | 1018.2 |
| 20260906080003 | 62 | 0 | 0.0 | 0.0 | 0.00 | 0.00 | 0.00 | 78 | 1018.1 |
| 20260906075803 | 62 | 0 | 0.0 | 0.0 | 0.00 | 0.00 | 0.00 | 78 | 1018.2 |
| 20260906075603 | 62 | 0 | 0.0 | 0.0 | 0.00 | 0.00 | 0.00 | 78 | 1018.1 |
| 20260906075403 | 62 | 0 | 0.0 | 0.0 | 0.00 | 0.00 | 0.00 | 78 | 1018.2 |
| 20260906075203 | 62 | 0 | 0.0 | 0.0 | 0.00 | 0.00 | 0.00 | 78 | 1018.2 |
| 20260906075025 | 62 | 0 | 0.0 | 0.0 | 0.00 | 0.01 | 0.00 | 78 | 1018.2 |
| 20260906074803 | 62 | 0 | 0.0 | 0.0 | 0.00 | 0.01 | 0.00 | 78 | 1018.2 |
| 20260906074624 | 62 | 0 | 0.0 | 0.0 | 0.00 | 0.01 | 0.00 | 78 | 1018.2 |
| 20260906074403 | 62 | 0 | 0.0 | 0.0 | 0.00 | 0.01 | 0.00 | 78 | 1018.1 |
| 20260906074203 | 63 | 0 | 0.0 | 0.0 | 0.00 | 0.01 | 0.00 | 78 | 1018.1 |
| 20260906074003 | 63 | 0 | 0.0 | 0.0 | 0.00 | 0.01 | 0.00 | 78 | 1018.1 |
| 20260906073803 | 63 | 0 | 0.0 | 0.0 | 0.00 | 0.01 | 0.00 | 77 | 1018.1 |
| 20260906073603 | 63 | 0 | 0.0 | 0.0 | 0.00 | 0.01 | 0.00 | 78 | 1018.1 |
| 20260906073403 | 63 | 0 | 0.0 | 0.0 | 0.00 | 0.01 | 0.00 | 78 | 1018.1 |
| 20260906073203 | 63 | 0 | 0.0 | 0.0 | 0.00 | 0.01 | 0.00 | 78 | 1018.0 |
| 20260906073003 | 63 | 0 | 0.0 | 0.0 | 0.00 | 0.01 | 0.00 | 78 | 1017.9 |
| 20260906072803 | 63 | 0 | 0.0 | 0.0 | 0.00 | 0.01 | 0.00 | 78 | 1017.9 |
| 20260906072603 | 63 | 0 | 0.0 | 0.0 | 0.00 | 0.01 | 0.00 | 78 | 1017.9 |
| 20260906072403 | 63 | 0 | 0.0 | 0.0 | 0.00 | 0.01 | 0.00 | 78 | 1017.9 |
| 20260906072224 | 63 | 0 | 0.0 | 0.0 | 0.00 | 0.01 | 0.00 | 78 | 1018.0 |
| 20260906072003 | 63 | 0 | 0.0 | 0.0 | 0.00 | 0.01 | 0.00 | 78 | 1018.0 |
| 20260906071803 | 63 | 0 | 0.0 | 0.0 | 0.00 | 0.01 | 0.00 | 78 | 1018.0 |
| 20260906071624 | 63 | 0 | 0.0 | 0.0 | 0.00 | 0.01 | 0.00 | 78 | 1018.0 |
| 20260906071424 | 63 | 0 | 0.0 | 0.0 | 0.00 | 0.01 | 0.00 | 78 | 1018.0 |
| 20260906071203 | 63 | 0 | 0.0 | 0.0 | 0.00 | 0.01 | 0.00 | 78 | 1018.0 |
| 20260906071003 | 63 | 0 | 0.0 | 0.0 | 0.00 | 0.01 | 0.00 | 78 | 1018.0 |
| 20260906070803 | 63 | 0 | 0.0 | 0.0 | 0.00 | 0.01 | 0.00 | 78 | 1018.0 |
| 20260906070603 | 63 | 0 | 0.0 | 0.0 | 0.00 | 0.01 | 0.00 | 78 | 1018.0 |
| 20260906070424 | 63 | 0 | 0.0 | 0.0 | 0.00 | 0.01 | 0.00 | 78 | 1018.0 |
| 20260906070203 | 63 | 0 | 0.0 | 0.0 | 0.00 | 0.01 | 0.00 | 78 | 1018.1 |
| 20260906070003 | 63 | 0 | 0.0 | 0.0 | 0.00 | 0.01 | 0.00 | 78 | 1018.0 |
| 20260906065824 | 63 | 0 | 0.0 | 0.0 | 0.00 | 0.01 | 0.00 | 78 | 1018.0 |
| 20260906065624 | 63 | 0 | 0.0 | 0.0 | 0.00 | 0.01 | 0.00 | 78 | 1018.0 |
| 20260906065403 | 64 | 0 | 0.0 | 0.0 | 0.00 | 0.01 | 0.00 | 78 | 1018.0 |
| 20260906065203 | 64 | 0 | 0.0 | 0.0 | 0.00 | 0.01 | 0.00 | 78 | 1018.0 |
| 20260906065003 | 64 | 0 | 0.0 | 0.0 | 0.00 | 0.01 | 0.00 | 78 | 1018.1 |
| 20260906064803 | 64 | 0 | 0.0 | 0.0 | 0.00 | 0.02 | 0.00 | 78 | 1018.1 |
| 20260906064603 | 64 | 0 | 0.0 | 0.0 | 0.00 | 0.02 | 0.00 | 78 | 1018.2 |
| 20260906064403 | 64 | 0 | 0.0 | 0.0 | 0.00 | 0.03 | 0.00 | 78 | 1018.2 |
| 20260906064203 | 64 | 0 | 0.0 | 0.0 | 0.00 | 0.03 | 0.00 | 77 | 1018.2 |
| 20260906064024 | 64 | 0 | 0.0 | 0.0 | 0.00 | 0.03 | 0.00 | 77 | 1018.2 |
| 20260906063803 | 64 | 0 | 0.0 | 0.0 | 0.00 | 0.03 | 0.00 | 77 | 1018.1 |
| 20260906063603 | 64 | 0 | 0.0 | 0.0 | 0.00 | 0.03 | 0.00 | 77 | 1018.2 |
| 20260906063403 | 64 | 0 | 0.0 | 0.0 | 0.00 | 0.03 | 0.00 | 77 | 1018.2 |
| 20260906063203 | 64 | 0 | 0.0 | 0.0 | 0.00 | 0.03 | 0.00 | 77 | 1018.1 |
| 20260906063003 | 64 | 0 | 0.0 | 0.0 | 0.00 | 0.03 | 0.00 | 77 | 1018.1 |
| 20260906062824 | 64 | 0 | 0.0 | 0.0 | 0.00 | 0.03 | 0.00 | 77 | 1018.2 |
| 20260906062603 | 64 | 0 | 0.0 | 0.0 | 0.00 | 0.03 | 0.00 | 77 | 1018.1 |
| 20260906062403 | 64 | 0 | 0.0 | 0.0 | 0.00 | 0.03 | 0.00 | 78 | 1018.1 |
| 20260906062224 | 64 | 0 | 0.0 | 0.0 | 0.00 | 0.03 | 0.00 | 77 | 1018.1 |
| 20260906062003 | 64 | 0 | 0.0 | 0.0 | 0.00 | 0.03 | 0.00 | 77 | 1018.2 |
| 20260906061803 | 64 | 0 | 0.0 | 0.0 | 0.00 | 0.03 | 0.00 | 77 | 1018.1 |
| 20260906061603 | 64 | 0 | 0.0 | 0.0 | 0.00 | 0.03 | 0.00 | 77 | 1018.2 |
| 20260906061403 | 64 | 0 | 0.0 | 0.0 | 0.00 | 0.04 | 0.00 | 77 | 1018.1 |
| 20260906061203 | 64 | 0 | 0.0 | 0.0 | 0.00 | 0.04 | 0.00 | 77 | 1018.1 |
| 20260906061003 | 64 | 0 | 0.0 | 0.0 | 0.00 | 0.04 | 0.00 | 77 | 1018.1 |
| 20260906060803 | 64 | 0 | 0.0 | 0.0 | 0.00 | 0.04 | 0.00 | 77 | 1018.1 |
| 20260906060624 | 64 | 0 | 0.0 | 0.0 | 0.00 | 0.05 | 0.00 | 77 | 1018.0 |
| 20260906060403 | 64 | 0 | 0.0 | 0.0 | 0.00 | 0.05 | 0.00 | 77 | 1018.0 |
| 20260906060203 | 64 | 0 | 0.0 | 0.0 | 0.00 | 0.05 | 0.00 | 76 | 1017.9 |
| 20260906060004 | 64 | 0 | 0.0 | 0.0 | 0.00 | 0.05 | 0.00 | 76 | 1017.9 |
| 20260906055803 | 64 | 0 | 0.0 | 0.0 | 0.00 | 0.05 | 0.00 | 76 | 1017.9 |
| 20260906055603 | 65 | 0 | 0.0 | 0.0 | 0.00 | 0.05 | 0.00 | 76 | 1017.9 |
| 20260906055403 | 65 | 0 | 0.0 | 0.0 | 0.00 | 0.05 | 0.00 | 76 | 1017.8 |
| 20260906055204 | 65 | 0 | 0.0 | 0.0 | 0.00 | 0.05 | 0.00 | 76 | 1017.8 |
| 20260906055003 | 65 | 0 | 0.0 | 0.0 | 0.00 | 0.05 | 0.00 | 76 | 1017.8 |
| 20260906054803 | 65 | 0 | 0.0 | 0.0 | 0.00 | 0.05 | 0.00 | 76 | 1017.8 |
| 20260906054603 | 65 | 0 | 0.0 | 0.0 | 0.00 | 0.05 | 0.00 | 76 | 1017.8 |
| 20260906054403 | 65 | 0 | 0.0 | 0.0 | 0.00 | 0.05 | 0.00 | 76 | 1017.8 |
| 20260906054203 | 65 | 0 | 0.0 | 0.0 | 0.00 | 0.05 | 0.00 | 76 | 1017.9 |
| 20260906054003 | 65 | 0 | 0.0 | 0.0 | 0.00 | 0.05 | 0.00 | 76 | 1017.8 |
| 20260906053803 | 65 | 0 | 0.0 | 0.0 | 0.00 | 0.05 | 0.00 | 76 | 1017.8 |
| 20260906053603 | 65 | 181 | 0.0 | 3.0 | 0.00 | 0.05 | 0.00 | 76 | 1017.8 |
| 20260906053403 | 65 | 184 | 0.0 | 3.0 | 0.00 | 0.05 | 0.00 | 76 | 1017.8 |
| 20260906053203 | 65 | 184 | 0.0 | 3.0 | 0.00 | 0.05 | 0.00 | 76 | 1017.8 |
| 20260906053003 | 65 | 184 | 0.0 | 3.0 | 0.00 | 0.05 | 0.00 | 76 | 1017.8 |
| 20260906052824 | 65 | 186 | 0.0 | 3.0 | 0.00 | 0.05 | 0.00 | 76 | 1017.8 |
| 20260906052624 | 65 | 189 | 0.0 | 3.0 | 0.00 | 0.05 | 0.00 | 76 | 1017.8 |
| 20260906052403 | 65 | 191 | 0.0 | 3.0 | 0.00 | 0.05 | 0.00 | 76 | 1017.8 |
| 20260906052224 | 65 | 191 | 0.0 | 3.0 | 0.00 | 0.05 | 0.00 | 76 | 1017.7 |
| 20260906052003 | 65 | 180 | 1.0 | 5.0 | 0.00 | 0.05 | 0.00 | 76 | 1017.7 |
| 20260906051824 | 65 | 182 | 1.0 | 5.0 | 0.00 | 0.06 | 0.00 | 76 | 1017.7 |
| 20260906051603 | 65 | 182 | 1.0 | 5.0 | 0.00 | 0.06 | 0.00 | 76 | 1017.7 |
| 20260906051403 | 65 | 182 | 2.0 | 5.0 | 0.00 | 0.06 | 0.00 | 76 | 1017.7 |
| 20260906051224 | 65 | 180 | 2.0 | 5.0 | 0.00 | 0.06 | 0.00 | 75 | 1017.7 |
| 20260906051003 | 65 | 180 | 2.0 | 6.0 | 0.00 | 0.06 | 0.00 | 75 | 1017.6 |
| 20260906050824 | 65 | 178 | 2.0 | 6.0 | 0.00 | 0.06 | 0.00 | 75 | 1017.6 |
| 20260906050603 | 65 | 177 | 1.0 | 6.0 | 0.00 | 0.06 | 0.00 | 76 | 1017.6 |
| 20260906050424 | 66 | 176 | 1.0 | 6.0 | 0.00 | 0.06 | 0.00 | 76 | 1017.5 |
| 20260906050203 | 66 | 177 | 1.0 | 6.0 | 0.00 | 0.06 | 0.00 | 76 | 1017.5 |
| 20260906050003 | 66 | 173 | 1.0 | 5.0 | 0.00 | 0.07 | 0.00 | 76 | 1017.5 |
| 20260906045824 | 66 | 178 | 1.0 | 5.0 | 0.00 | 0.08 | 0.00 | 76 | 1017.5 |
| 20260906045603 | 66 | 180 | 1.0 | 6.0 | 0.00 | 0.10 | 0.00 | 76 | 1017.5 |
| 20260906045403 | 66 | 180 | 1.0 | 6.0 | 0.00 | 0.12 | 0.00 | 76 | 1017.5 |
| 20260906045224 | 66 | 177 | 1.0 | 7.0 | 0.00 | 0.13 | 0.00 | 76 | 1017.5 |
| 20260906045003 | 66 | 179 | 2.0 | 9.0 | 0.00 | 0.14 | 0.00 | 76 | 1017.5 |
| 20260906044803 | 66 | 178 | 2.0 | 9.0 | 0.00 | 0.14 | 0.00 | 76 | 1017.4 |
| 20260906044603 | 66 | 179 | 3.0 | 9.0 | 0.00 | 0.16 | 0.00 | 76 | 1017.4 |
| 20260906044403 | 66 | 180 | 4.0 | 11.0 | 0.00 | 0.16 | 0.00 | 76 | 1017.3 |
| 20260906044224 | 66 | 180 | 4.0 | 11.0 | 0.00 | 0.16 | 0.00 | 76 | 1017.3 |
| 20260906044024 | 66 | 182 | 4.0 | 11.0 | 0.00 | 0.16 | 0.00 | 76 | 1017.3 |
| 20260906043803 | 66 | 184 | 4.0 | 11.0 | 0.00 | 0.16 | 0.00 | 76 | 1017.3 |
| 20260906043603 | 66 | 185 | 3.0 | 11.0 | 0.00 | 0.16 | 0.00 | 76 | 1017.3 |
| 20260906043403 | 66 | 183 | 3.0 | 10.0 | 0.00 | 0.16 | 0.00 | 76 | 1017.3 |
| 20260906043203 | 66 | 185 | 3.0 | 10.0 | 0.00 | 0.17 | 0.00 | 76 | 1017.3 |
| 20260906043024 | 66 | 184 | 3.0 | 7.0 | 0.00 | 0.17 | 0.00 | 76 | 1017.3 |
| 20260906042803 | 66 | 182 | 3.0 | 7.0 | 0.00 | 0.18 | 0.00 | 76 | 1017.4 |
| 20260906042624 | 66 | 182 | 3.0 | 7.0 | 0.00 | 0.18 | 0.00 | 76 | 1017.4 |
| 20260906042403 | 66 | 182 | 3.0 | 6.0 | 0.00 | 0.18 | 0.00 | 76 | 1017.4 |
| 20260906042203 | 66 | 182 | 3.0 | 6.0 | 0.00 | 0.18 | 0.00 | 76 | 1017.4 |
| 20260906042003 | 66 | 180 | 3.0 | 6.0 | 0.00 | 0.18 | 0.00 | 76 | 1017.5 |
| 20260906041824 | 66 | 177 | 3.0 | 8.0 | 0.00 | 0.18 | 0.00 | 76 | 1017.5 |
| 20260906041603 | 66 | 175 | 3.0 | 8.0 | 0.00 | 0.18 | 0.00 | 76 | 1017.5 |
| 20260906041424 | 67 | 178 | 3.0 | 8.0 | 0.00 | 0.18 | 0.00 | 76 | 1017.5 |
| 20260906041203 | 67 | 179 | 3.0 | 8.0 | 0.00 | 0.18 | 0.00 | 77 | 1017.5 |
| 20260906041024 | 67 | 181 | 3.0 | 8.0 | 0.00 | 0.18 | 0.00 | 76 | 1017.5 |
| 20260906040803 | 67 | 184 | 3.0 | 8.0 | 0.00 | 0.18 | 0.00 | 77 | 1017.4 |
| 20260906040624 | 67 | 183 | 4.0 | 8.0 | 0.00 | 0.18 | 0.00 | 77 | 1017.4 |
| 20260906040424 | 67 | 181 | 3.0 | 8.0 | 0.00 | 0.18 | 0.00 | 76 | 1017.4 |
| 20260906040203 | 67 | 180 | 2.0 | 8.0 | 0.00 | 0.18 | 0.00 | 77 | 1017.4 |
| 20260906040004 | 67 | 178 | 2.0 | 8.0 | 0.00 | 0.18 | 0.00 | 77 | 1017.3 |
| 20260906035803 | 67 | 180 | 2.0 | 8.0 | 0.00 | 0.18 | 0.18 | 77 | 1017.2 |
| 20260906035603 | 67 | 184 | 2.0 | 8.0 | 0.00 | 0.18 | 0.18 | 77 | 1017.2 |
| 20260906035403 | 67 | 183 | 2.0 | 8.0 | 0.00 | 0.18 | 0.18 | 77 | 1017.2 |
| 20260906035203 | 67 | 173 | 2.0 | 8.0 | 0.00 | 0.18 | 0.18 | 77 | 1017.2 |
| 20260906035024 | 67 | 172 | 3.0 | 8.0 | 0.00 | 0.18 | 0.18 | 77 | 1017.2 |
| 20260906034824 | 67 | 170 | 3.0 | 8.0 | 0.00 | 0.18 | 0.18 | 77 | 1017.2 |
| 20260906034624 | 67 | 166 | 3.0 | 7.0 | 0.00 | 0.18 | 0.18 | 78 | 1017.3 |
| 20260906034403 | 67 | 168 | 3.0 | 7.0 | 0.00 | 0.18 | 0.18 | 78 | 1017.2 |
| 20260906034203 | 67 | 173 | 2.0 | 7.0 | 0.00 | 0.18 | 0.18 | 78 | 1017.2 |
| 20260906034003 | 67 | 173 | 2.0 | 5.0 | 0.00 | 0.18 | 0.18 | 78 | 1017.2 |
| 20260906033803 | 67 | 177 | 2.0 | 5.0 | 0.00 | 0.18 | 0.18 | 79 | 1017.1 |
| 20260906033603 | 67 | 178 | 2.0 | 5.0 | 0.00 | 0.18 | 0.18 | 79 | 1017.2 |
| 20260906033424 | 67 | 176 | 2.0 | 5.0 | 0.00 | 0.18 | 0.18 | 79 | 1017.1 |
| 20260906033203 | 67 | 177 | 2.0 | 5.0 | 0.00 | 0.18 | 0.18 | 79 | 1017.0 |
| 20260906033003 | 67 | 179 | 1.0 | 4.0 | 0.00 | 0.18 | 0.18 | 80 | 1017.1 |
| 20260906032803 | 67 | 175 | 1.0 | 4.0 | 0.00 | 0.18 | 0.18 | 80 | 1017.1 |
| 20260906032603 | 67 | 175 | 1.0 | 3.0 | 0.00 | 0.18 | 0.18 | 80 | 1017.1 |
| 20260906032424 | 67 | 175 | 1.0 | 3.0 | 0.00 | 0.18 | 0.18 | 80 | 1017.1 |
| 20260906032203 | 67 | 172 | 0.0 | 3.0 | 0.00 | 0.18 | 0.18 | 80 | 1017.0 |
| 20260906032003 | 67 | 163 | 0.0 | 3.0 | 0.00 | 0.18 | 0.18 | 80 | 1017.0 |
| 20260906031803 | 67 | 0 | 0.0 | 0.0 | 0.00 | 0.18 | 0.18 | 80 | 1017.0 |
| 20260906031603 | 67 | 0 | 0.0 | 0.0 | 0.00 | 0.18 | 0.18 | 80 | 1017.0 |
| 20260906031403 | 68 | 0 | 0.0 | 0.0 | 0.00 | 0.18 | 0.18 | 80 | 1017.0 |
| 20260906031203 | 68 | 0 | 0.0 | 0.0 | 0.00 | 0.18 | 0.18 | 80 | 1017.0 |
| 20260906031003 | 68 | 0 | 0.0 | 0.0 | 0.00 | 0.18 | 0.18 | 80 | 1017.0 |
| 20260906030803 | 68 | 0 | 0.0 | 0.0 | 0.00 | 0.18 | 0.18 | 81 | 1017.0 |
| 20260906030603 | 68 | 0 | 0.0 | 0.0 | 0.00 | 0.18 | 0.18 | 81 | 1016.9 |
| 20260906030403 | 68 | 0 | 0.0 | 0.0 | 0.00 | 0.18 | 0.18 | 81 | 1016.9 |
| 20260906030203 | 68 | 0 | 0.0 | 0.0 | 0.00 | 0.18 | 0.18 | 81 | 1016.9 |
| 20260906030003 | 68 | 0 | 0.0 | 0.0 | 0.00 | 0.18 | 0.18 | 81 | 1016.8 |
| 20260906025803 | 68 | 0 | 0.0 | 0.0 | 0.00 | 0.18 | 0.18 | 81 | 1016.7 |
| 20260906025603 | 68 | 0 | 0.0 | 0.0 | 0.00 | 0.18 | 0.18 | 81 | 1016.6 |
| 20260906025403 | 68 | 125 | 0.0 | 4.0 | 0.00 | 0.18 | 0.18 | 81 | 1016.6 |
| 20260906025224 | 68 | 125 | 0.0 | 4.0 | 0.00 | 0.18 | 0.18 | 81 | 1016.6 |
| 20260906025003 | 68 | 125 | 0.0 | 4.0 | 0.00 | 0.18 | 0.18 | 81 | 1016.6 |
| 20260906024804 | 68 | 125 | 0.0 | 4.0 | 0.00 | 0.18 | 0.18 | 81 | 1016.6 |
| 20260906024603 | 68 | 125 | 0.0 | 4.0 | 0.00 | 0.18 | 0.18 | 81 | 1016.6 |
| 20260906024403 | 68 | 0 | 0.0 | 0.0 | 0.00 | 0.18 | 0.18 | 81 | 1016.5 |
| 20260906024203 | 68 | 0 | 0.0 | 0.0 | 0.00 | 0.18 | 0.18 | 81 | 1016.5 |
| 20260906024003 | 68 | 0 | 0.0 | 0.0 | 0.00 | 0.18 | 0.18 | 81 | 1016.6 |
| 20260906023803 | 68 | 0 | 0.0 | 0.0 | 0.00 | 0.18 | 0.18 | 81 | 1016.5 |
| 20260906023603 | 68 | 0 | 0.0 | 0.0 | 0.00 | 0.18 | 0.18 | 81 | 1016.5 |
| 20260906023403 | 68 | 0 | 0.0 | 0.0 | 0.00 | 0.18 | 0.18 | 81 | 1016.6 |
| 20260906023225 | 68 | 0 | 0.0 | 0.0 | 0.00 | 0.18 | 0.18 | 81 | 1016.6 |
| 20260906023003 | 68 | 0 | 0.0 | 0.0 | 0.00 | 0.18 | 0.18 | 81 | 1016.6 |
| 20260906022803 | 68 | 0 | 0.0 | 0.0 | 0.00 | 0.18 | 0.18 | 81 | 1016.7 |
| 20260906022603 | 68 | 0 | 0.0 | 0.0 | 0.00 | 0.18 | 0.18 | 81 | 1016.6 |
| 20260906022424 | 68 | 0 | 0.0 | 0.0 | 0.00 | 0.18 | 0.18 | 80 | 1016.6 |
| 20260906022224 | 68 | 0 | 0.0 | 0.0 | 0.00 | 0.18 | 0.18 | 80 | 1016.6 |
| 20260906022024 | 68 | 0 | 0.0 | 0.0 | 0.00 | 0.18 | 0.18 | 81 | 1016.6 |
| 20260906021803 | 68 | 0 | 0.0 | 0.0 | 0.00 | 0.18 | 0.18 | 81 | 1016.6 |
| 20260906021603 | 68 | 0 | 0.0 | 0.0 | 0.00 | 0.18 | 0.18 | 81 | 1016.6 |
| 20260906021403 | 68 | 0 | 0.0 | 0.0 | 0.00 | 0.18 | 0.18 | 81 | 1016.6 |
| 20260906021203 | 68 | 0 | 0.0 | 0.0 | 0.00 | 0.18 | 0.18 | 80 | 1016.6 |
| 20260906021003 | 68 | 0 | 0.0 | 0.0 | 0.00 | 0.18 | 0.18 | 81 | 1016.7 |
| 20260906020803 | 68 | 0 | 0.0 | 0.0 | 0.00 | 0.18 | 0.18 | 81 | 1016.6 |
| 20260906020603 | 68 | 0 | 0.0 | 0.0 | 0.00 | 0.18 | 0.18 | 80 | 1016.6 |
| 20260906020403 | 68 | 0 | 0.0 | 0.0 | 0.00 | 0.18 | 0.18 | 80 | 1016.6 |
| 20260906020203 | 68 | 0 | 0.0 | 0.0 | 0.00 | 0.18 | 0.18 | 80 | 1016.6 |
| 20260906020024 | 68 | 0 | 0.0 | 0.0 | 0.00 | 0.18 | 0.18 | 80 | 1016.6 |
| 20260906015803 | 68 | 0 | 0.0 | 0.0 | 0.00 | 0.18 | 0.18 | 80 | 1016.5 |
| 20260906015624 | 68 | 0 | 0.0 | 0.0 | 0.00 | 0.18 | 0.18 | 79 | 1016.5 |
| 20260906015403 | 68 | 0 | 0.0 | 0.0 | 0.00 | 0.18 | 0.18 | 79 | 1016.4 |
| 20260906015203 | 68 | 0 | 0.0 | 0.0 | 0.00 | 0.18 | 0.18 | 79 | 1016.4 |
| 20260906015004 | 68 | 0 | 0.0 | 0.0 | 0.00 | 0.18 | 0.18 | 79 | 1016.4 |
| 20260906014803 | 68 | 0 | 0.0 | 0.0 | 0.00 | 0.18 | 0.18 | 79 | 1016.3 |
| 20260906014603 | 68 | 0 | 0.0 | 0.0 | 0.00 | 0.18 | 0.18 | 79 | 1016.4 |
| 20260906014403 | 68 | 0 | 0.0 | 0.0 | 0.00 | 0.18 | 0.18 | 79 | 1016.3 |
| 20260906014203 | 69 | 0 | 0.0 | 0.0 | 0.00 | 0.18 | 0.18 | 79 | 1016.4 |
| 20260906014003 | 69 | 0 | 0.0 | 0.0 | 0.00 | 0.18 | 0.18 | 79 | 1016.3 |
| 20260906013803 | 69 | 0 | 0.0 | 0.0 | 0.00 | 0.18 | 0.18 | 79 | 1016.3 |
| 20260906013624 | 69 | 0 | 0.0 | 0.0 | 0.00 | 0.18 | 0.18 | 79 | 1016.3 |
| 20260906013403 | 69 | 0 | 0.0 | 0.0 | 0.00 | 0.18 | 0.18 | 79 | 1016.3 |
| 20260906013203 | 69 | 0 | 0.0 | 0.0 | 0.00 | 0.18 | 0.18 | 79 | 1016.2 |
| 20260906013003 | 69 | 0 | 0.0 | 0.0 | 0.00 | 0.18 | 0.18 | 79 | 1016.2 |
| 20260906012803 | 69 | 0 | 0.0 | 0.0 | 0.00 | 0.18 | 0.18 | 79 | 1016.2 |
| 20260906012603 | 69 | 0 | 0.0 | 0.0 | 0.00 | 0.18 | 0.18 | 79 | 1016.1 |
| 20260906012403 | 69 | 0 | 0.0 | 0.0 | 0.00 | 0.18 | 0.18 | 79 | 1016.1 |
| 20260906012203 | 69 | 0 | 0.0 | 0.0 | 0.00 | 0.18 | 0.18 | 79 | 1016.0 |
| 20260906012003 | 70 | 0 | 0.0 | 0.0 | 0.00 | 0.18 | 0.18 | 79 | 1016.0 |
| 20260906011803 | 70 | 0 | 0.0 | 0.0 | 0.00 | 0.18 | 0.18 | 79 | 1016.0 |
| 20260906011624 | 70 | 0 | 0.0 | 0.0 | 0.00 | 0.18 | 0.18 | 79 | 1015.9 |
| 20260906011403 | 70 | 0 | 0.0 | 0.0 | 0.00 | 0.18 | 0.18 | 79 | 1015.9 |
| 20260906011203 | 70 | 0 | 0.0 | 0.0 | 0.00 | 0.18 | 0.18 | 79 | 1015.8 |
| 20260906011003 | 70 | 0 | 0.0 | 0.0 | 0.00 | 0.18 | 0.18 | 78 | 1015.8 |
| 20260906010803 | 70 | 0 | 0.0 | 0.0 | 0.00 | 0.18 | 0.18 | 79 | 1015.9 |
| 20260906010603 | 70 | 0 | 0.0 | 0.0 | 0.00 | 0.18 | 0.18 | 79 | 1015.9 |
| 20260906010403 | 70 | 0 | 0.0 | 0.0 | 0.00 | 0.18 | 0.18 | 79 | 1015.9 |
| 20260906010224 | 70 | 0 | 0.0 | 0.0 | 0.00 | 0.18 | 0.18 | 79 | 1015.9 |
| 20260906010003 | 70 | 0 | 0.0 | 0.0 | 0.00 | 0.18 | 0.18 | 79 | 1016.0 |
| 20260906005803 | 70 | 0 | 0.0 | 0.0 | 0.00 | 0.18 | 0.18 | 79 | 1016.0 |
| 20260906005603 | 70 | 0 | 0.0 | 0.0 | 0.00 | 0.18 | 0.18 | 79 | 1015.9 |
| 20260906005403 | 70 | 0 | 0.0 | 0.0 | 0.00 | 0.18 | 0.18 | 79 | 1015.9 |
| 20260906005203 | 70 | 0 | 0.0 | 0.0 | 0.00 | 0.18 | 0.18 | 79 | 1015.8 |
| 20260906005003 | 70 | 0 | 0.0 | 0.0 | 0.00 | 0.18 | 0.18 | 79 | 1015.8 |
| 20260906004824 | 70 | 0 | 0.0 | 0.0 | 0.00 | 0.18 | 0.18 | 79 | 1015.8 |
| 20260906004603 | 70 | 0 | 0.0 | 0.0 | 0.00 | 0.18 | 0.18 | 79 | 1015.8 |
| 20260906004403 | 70 | 0 | 0.0 | 0.0 | 0.00 | 0.18 | 0.18 | 79 | 1015.8 |
| 20260906004203 | 70 | 0 | 0.0 | 0.0 | 0.00 | 0.18 | 0.18 | 78 | 1015.8 |
| 20260906004003 | 71 | 0 | 0.0 | 0.0 | 0.00 | 0.18 | 0.18 | 79 | 1015.8 |
| 20260906003803 | 71 | 0 | 0.0 | 0.0 | 0.00 | 0.18 | 0.18 | 79 | 1015.8 |
| 20260906003603 | 71 | 0 | 0.0 | 0.0 | 0.00 | 0.18 | 0.18 | 78 | 1015.8 |
| 20260906003403 | 71 | 0 | 0.0 | 0.0 | 0.00 | 0.18 | 0.18 | 78 | 1015.8 |
| 20260906003203 | 71 | 0 | 0.0 | 0.0 | 0.00 | 0.18 | 0.18 | 79 | 1015.8 |
| 20260906003003 | 71 | 0 | 0.0 | 0.0 | 0.00 | 0.18 | 0.18 | 78 | 1015.9 |
| 20260906002803 | 71 | 0 | 0.0 | 0.0 | 0.00 | 0.18 | 0.18 | 79 | 1015.9 |
| 20260906002603 | 71 | 0 | 0.0 | 0.0 | 0.00 | 0.18 | 0.18 | 78 | 1015.8 |
| 20260906002424 | 71 | 0 | 0.0 | 0.0 | 0.00 | 0.18 | 0.18 | 79 | 1015.8 |
| 20260906002203 | 71 | 0 | 0.0 | 0.0 | 0.00 | 0.18 | 0.18 | 79 | 1015.7 |
| 20260906002003 | 71 | 0 | 0.0 | 0.0 | 0.00 | 0.18 | 0.18 | 79 | 1015.7 |
| 20260906001803 | 71 | 0 | 0.0 | 0.0 | 0.00 | 0.18 | 0.18 | 79 | 1015.8 |
| 20260906001603 | 71 | 0 | 0.0 | 0.0 | 0.00 | 0.18 | 0.18 | 79 | 1015.8 |
| 20260906001403 | 71 | 0 | 0.0 | 0.0 | 0.00 | 0.18 | 0.18 | 79 | 1015.7 |
| 20260906001203 | 71 | 0 | 0.0 | 0.0 | 0.00 | 0.18 | 0.18 | 79 | 1015.7 |
| 20260906001024 | 71 | 0 | 0.0 | 0.0 | 0.00 | 0.18 | 0.18 | 79 | 1015.6 |
| 20260906000803 | 71 | 0 | 0.0 | 0.0 | 0.00 | 0.18 | 0.18 | 79 | 1015.7 |
| 20260906000603 | 71 | 0 | 0.0 | 0.0 | 0.00 | 0.18 | 0.18 | 79 | 1015.7 |
| 20260906000403 | 71 | 0 | 0.0 | 0.0 | 0.00 | 0.18 | 0.18 | 79 | 1015.7 |
| 20260906000204 | 71 | 0 | 0.0 | 0.0 | 0.00 | 0.18 | 0.18 | 79 | 1015.7 |
| 20260906000003 | 71 | 0 | 0.0 | 0.0 | 0.00 | 0.18 | 0.18 | 79 | 1015.8 |
| 20260905235803 | 71 | 0 | 0.0 | 0.0 | 0.00 | 0.18 | 0.18 | 79 | 1015.7 |
| 20260905235603 | 71 | 0 | 0.0 | 0.0 | 0.00 | 0.18 | 0.18 | 79 | 1015.7 |
| 20260905235403 | 71 | 0 | 0.0 | 0.0 | 0.00 | 0.18 | 0.18 | 79 | 1015.7 |
| 20260905235204 | 71 | 0 | 0.0 | 0.0 | 0.00 | 0.18 | 0.18 | 79 | 1015.6 |
| 20260905235003 | 71 | 0 | 0.0 | 0.0 | 0.00 | 0.18 | 0.18 | 79 | 1015.6 |
| 20260905234803 | 71 | 0 | 0.0 | 0.0 | 0.00 | 0.18 | 0.18 | 79 | 1015.6 |
| 20260905234603 | 71 | 0 | 0.0 | 0.0 | 0.00 | 0.18 | 0.18 | 79 | 1015.6 |
| 20260905234403 | 71 | 0 | 0.0 | 0.0 | 0.00 | 0.18 | 0.18 | 79 | 1015.6 |
| 20260905234203 | 71 | 0 | 0.0 | 0.0 | 0.00 | 0.18 | 0.18 | 79 | 1015.7 |
| 20260905234024 | 71 | 0 | 0.0 | 0.0 | 0.00 | 0.18 | 0.18 | 79 | 1015.7 |
| 20260905233803 | 71 | 0 | 0.0 | 0.0 | 0.00 | 0.18 | 0.18 | 79 | 1015.7 |
| 20260905233603 | 71 | 0 | 0.0 | 0.0 | 0.00 | 0.18 | 0.18 | 79 | 1015.7 |
| 20260905233424 | 71 | 0 | 0.0 | 0.0 | 0.00 | 0.18 | 0.18 | 79 | 1015.8 |
| 20260905233203 | 71 | 0 | 0.0 | 0.0 | 0.00 | 0.18 | 0.18 | 79 | 1015.8 |
| 20260905233024 | 71 | 0 | 0.0 | 0.0 | 0.00 | 0.18 | 0.18 | 79 | 1015.7 |
| 20260905232803 | 71 | 0 | 0.0 | 0.0 | 0.00 | 0.18 | 0.18 | 79 | 1015.7 |
| 20260905232624 | 71 | 0 | 0.0 | 0.0 | 0.00 | 0.18 | 0.18 | 79 | 1015.8 |
| 20260905232203 | 71 | 0 | 0.0 | 0.0 | 0.00 | 0.18 | 0.18 | 79 | 1015.8 |
| 20260905232003 | 71 | 0 | 0.0 | 0.0 | 0.00 | 0.18 | 0.18 | 79 | 1015.8 |
| 20260905231803 | 71 | 0 | 0.0 | 0.0 | 0.00 | 0.18 | 0.18 | 79 | 1015.7 |
| 20260905231624 | 71 | 0 | 0.0 | 0.0 | 0.00 | 0.18 | 0.18 | 79 | 1015.7 |
| 20260905231424 | 71 | 0 | 0.0 | 0.0 | 0.00 | 0.18 | 0.18 | 79 | 1015.6 |
| 20260905231203 | 71 | 0 | 0.0 | 0.0 | 0.00 | 0.18 | 0.18 | 79 | 1015.6 |
| 20260905231003 | 71 | 0 | 0.0 | 0.0 | 0.00 | 0.18 | 0.18 | 78 | 1015.6 |
| 20260905230803 | 71 | 0 | 0.0 | 0.0 | 0.00 | 0.18 | 0.18 | 79 | 1015.5 |
| 20260905230603 | 71 | 0 | 0.0 | 0.0 | 0.00 | 0.18 | 0.18 | 78 | 1015.5 |
| 20260905230403 | 71 | 0 | 0.0 | 0.0 | 0.00 | 0.18 | 0.18 | 78 | 1015.5 |
| 20260905230225 | 71 | 0 | 0.0 | 0.0 | 0.00 | 0.18 | 0.18 | 78 | 1015.5 |
| 20260905230024 | 71 | 0 | 0.0 | 0.0 | 0.00 | 0.18 | 0.18 | 78 | 1015.5 |
| 20260905225803 | 71 | 183 | 0.0 | 1.0 | 0.00 | 0.18 | 0.18 | 79 | 1015.5 |
| 20260905225603 | 71 | 183 | 0.0 | 1.0 | 0.00 | 0.18 | 0.18 | 78 | 1015.5 |
| 20260905225403 | 71 | 183 | 0.0 | 1.0 | 0.00 | 0.18 | 0.18 | 79 | 1015.5 |
| 20260905225203 | 71 | 185 | 0.0 | 3.0 | 0.00 | 0.18 | 0.18 | 79 | 1015.5 |
| 20260905225003 | 71 | 185 | 1.0 | 3.0 | 0.00 | 0.18 | 0.18 | 78 | 1015.5 |
| 20260905224803 | 71 | 185 | 1.0 | 3.0 | 0.00 | 0.18 | 0.18 | 79 | 1015.5 |
| 20260905224603 | 71 | 185 | 1.0 | 3.0 | 0.00 | 0.18 | 0.18 | 78 | 1015.5 |
| 20260905224403 | 71 | 185 | 1.0 | 3.0 | 0.00 | 0.18 | 0.18 | 78 | 1015.5 |
| 20260905224203 | 71 | 185 | 1.0 | 3.0 | 0.00 | 0.18 | 0.18 | 78 | 1015.5 |
| 20260905224004 | 71 | 184 | 0.0 | 3.0 | 0.00 | 0.18 | 0.18 | 78 | 1015.4 |
| 20260905223824 | 71 | 184 | 0.0 | 3.0 | 0.00 | 0.18 | 0.18 | 78 | 1015.4 |
| 20260905223603 | 71 | 184 | 0.0 | 2.0 | 0.00 | 0.18 | 0.18 | 78 | 1015.4 |
| 20260905223403 | 71 | 183 | 1.0 | 4.0 | 0.00 | 0.18 | 0.18 | 78 | 1015.4 |
| 20260905223224 | 71 | 184 | 1.0 | 5.0 | 0.00 | 0.18 | 0.18 | 78 | 1015.4 |
| 20260905223003 | 71 | 185 | 1.0 | 5.0 | 0.00 | 0.18 | 0.18 | 78 | 1015.5 |
| 20260905222803 | 71 | 185 | 2.0 | 5.0 | 0.00 | 0.18 | 0.18 | 78 | 1015.5 |
| 20260905222603 | 71 | 185 | 2.0 | 5.0 | 0.00 | 0.18 | 0.18 | 78 | 1015.4 |
| 20260905222403 | 71 | 186 | 1.0 | 5.0 | 0.00 | 0.18 | 0.18 | 77 | 1015.4 |
| 20260905222203 | 71 | 187 | 1.0 | 5.0 | 0.00 | 0.18 | 0.18 | 78 | 1015.4 |
| 20260905222003 | 71 | 187 | 2.0 | 5.0 | 0.00 | 0.18 | 0.18 | 77 | 1015.5 |
| 20260905221803 | 71 | 186 | 2.0 | 5.0 | 0.00 | 0.18 | 0.18 | 77 | 1015.5 |
| 20260905221603 | 71 | 183 | 2.0 | 6.0 | 0.00 | 0.18 | 0.18 | 77 | 1015.5 |
| 20260905221403 | 71 | 180 | 2.0 | 6.0 | 0.00 | 0.18 | 0.18 | 77 | 1015.4 |
| 20260905221224 | 71 | 179 | 2.0 | 6.0 | 0.00 | 0.18 | 0.18 | 77 | 1015.5 |
| 20260905221024 | 72 | 177 | 2.0 | 6.0 | 0.00 | 0.18 | 0.18 | 76 | 1015.5 |
| 20260905220803 | 72 | 176 | 3.0 | 8.0 | 0.00 | 0.18 | 0.18 | 76 | 1015.4 |
| 20260905220603 | 72 | 180 | 3.0 | 9.0 | 0.00 | 0.18 | 0.18 | 76 | 1015.4 |
| 20260905220424 | 72 | 182 | 3.0 | 9.0 | 0.00 | 0.18 | 0.18 | 76 | 1015.4 |
| 20260905220224 | 72 | 183 | 3.0 | 9.0 | 0.00 | 0.18 | 0.18 | 75 | 1015.3 |
| 20260905220003 | 72 | 181 | 4.0 | 9.0 | 0.00 | 0.18 | 0.18 | 75 | 1015.3 |
| 20260905215803 | 72 | 183 | 3.0 | 9.0 | 0.00 | 0.18 | 0.18 | 75 | 1015.3 |
| 20260905215624 | 72 | 181 | 3.0 | 8.0 | 0.00 | 0.18 | 0.18 | 75 | 1015.3 |
| 20260905215403 | 72 | 179 | 4.0 | 8.0 | 0.00 | 0.18 | 0.18 | 75 | 1015.3 |
| 20260905215224 | 72 | 179 | 4.0 | 8.0 | 0.00 | 0.18 | 0.18 | 75 | 1015.2 |
| 20260905215003 | 73 | 182 | 3.0 | 8.0 | 0.00 | 0.18 | 0.18 | 75 | 1015.2 |
| 20260905214803 | 73 | 182 | 3.0 | 7.0 | 0.00 | 0.18 | 0.18 | 74 | 1015.1 |
| 20260905214624 | 73 | 181 | 3.0 | 7.0 | 0.00 | 0.18 | 0.18 | 74 | 1015.2 |
| 20260905214403 | 73 | 184 | 4.0 | 7.0 | 0.00 | 0.18 | 0.18 | 74 | 1015.1 |
| 20260905214203 | 73 | 183 | 4.0 | 9.0 | 0.00 | 0.18 | 0.18 | 74 | 1015.1 |
| 20260905214003 | 73 | 181 | 4.0 | 9.0 | 0.00 | 0.18 | 0.18 | 74 | 1015.1 |
| 20260905213803 | 73 | 180 | 4.0 | 9.0 | 0.00 | 0.18 | 0.18 | 74 | 1015.1 |
| 20260905213603 | 73 | 180 | 4.0 | 9.0 | 0.00 | 0.18 | 0.18 | 74 | 1015.1 |
| 20260905213403 | 73 | 180 | 4.0 | 10.0 | 0.00 | 0.18 | 0.18 | 73 | 1015.1 |
| 20260905213203 | 73 | 177 | 4.0 | 10.0 | 0.00 | 0.18 | 0.18 | 73 | 1015.0 |
| 20260905213003 | 73 | 176 | 4.0 | 10.0 | 0.00 | 0.18 | 0.18 | 73 | 1015.1 |
| 20260905212803 | 73 | 174 | 4.0 | 10.0 | 0.00 | 0.18 | 0.18 | 74 | 1015.0 |
| 20260905212603 | 73 | 174 | 4.0 | 10.0 | 0.00 | 0.18 | 0.18 | 73 | 1015.0 |
| 20260905212403 | 74 | 169 | 4.0 | 10.0 | 0.00 | 0.18 | 0.18 | 73 | 1015.0 |
| 20260905212203 | 74 | 171 | 5.0 | 10.0 | 0.00 | 0.18 | 0.18 | 73 | 1015.0 |
| 20260905212003 | 74 | 173 | 5.0 | 10.0 | 0.00 | 0.18 | 0.18 | 73 | 1015.0 |
| 20260905211803 | 74 | 173 | 5.0 | 10.0 | 0.00 | 0.18 | 0.18 | 73 | 1014.9 |
| 20260905211603 | 74 | 174 | 5.0 | 13.0 | 0.00 | 0.18 | 0.18 | 73 | 1014.9 |
| 20260905211403 | 74 | 176 | 5.0 | 13.0 | 0.00 | 0.18 | 0.18 | 73 | 1015.0 |
| 20260905211203 | 74 | 176 | 5.0 | 13.0 | 0.00 | 0.18 | 0.18 | 73 | 1014.9 |
| 20260905211003 | 74 | 176 | 5.0 | 13.0 | 0.00 | 0.18 | 0.18 | 73 | 1014.9 |
| 20260905210803 | 74 | 177 | 5.0 | 13.0 | 0.00 | 0.18 | 0.18 | 73 | 1014.9 |
| 20260905210624 | 74 | 178 | 5.0 | 11.0 | 0.00 | 0.18 | 0.18 | 73 | 1014.8 |
| 20260905210403 | 74 | 175 | 6.0 | 11.0 | 0.00 | 0.18 | 0.18 | 73 | 1014.8 |
| 20260905210203 | 74 | 176 | 6.0 | 11.0 | 0.00 | 0.18 | 0.18 | 74 | 1014.8 |
| 20260905210004 | 74 | 174 | 6.0 | 11.0 | 0.00 | 0.18 | 0.18 | 74 | 1014.8 |
| 20260905205824 | 74 | 176 | 6.0 | 14.0 | 0.00 | 0.18 | 0.18 | 74 | 1014.8 |
| 20260905205603 | 74 | 174 | 6.0 | 14.0 | 0.00 | 0.18 | 0.18 | 74 | 1014.8 |
| 20260905205403 | 74 | 176 | 6.0 | 14.0 | 0.00 | 0.18 | 0.18 | 73 | 1014.8 |
| 20260905205203 | 74 | 177 | 6.0 | 14.0 | 0.00 | 0.18 | 0.18 | 74 | 1014.9 |
| 20260905205003 | 74 | 178 | 6.0 | 14.0 | 0.00 | 0.18 | 0.18 | 73 | 1014.9 |
| 20260905204803 | 74 | 176 | 6.0 | 14.0 | 0.00 | 0.18 | 0.18 | 74 | 1014.9 |
| 20260905204603 | 74 | 176 | 6.0 | 14.0 | 0.00 | 0.18 | 0.18 | 74 | 1014.9 |
| 20260905204403 | 74 | 177 | 6.0 | 14.0 | 0.00 | 0.18 | 0.18 | 73 | 1014.9 |
| 20260905204203 | 75 | 176 | 5.0 | 14.0 | 0.00 | 0.18 | 0.18 | 74 | 1014.9 |
| 20260905204003 | 75 | 174 | 5.0 | 14.0 | 0.00 | 0.18 | 0.18 | 73 | 1014.9 |
| 20260905203824 | 75 | 176 | 5.0 | 9.0 | 0.00 | 0.18 | 0.18 | 73 | 1014.9 |
| 20260905203603 | 75 | 172 | 5.0 | 9.0 | 0.00 | 0.18 | 0.18 | 73 | 1014.9 |
| 20260905203403 | 75 | 173 | 5.0 | 10.0 | 0.00 | 0.18 | 0.18 | 73 | 1014.9 |
| 20260905203224 | 75 | 172 | 5.0 | 10.0 | 0.00 | 0.18 | 0.18 | 74 | 1014.9 |
| 20260905203024 | 75 | 175 | 5.0 | 10.0 | 0.00 | 0.18 | 0.18 | 73 | 1014.9 |
| 20260905202824 | 75 | 175 | 4.0 | 10.0 | 0.00 | 0.18 | 0.18 | 73 | 1014.9 |
| 20260905202603 | 75 | 179 | 4.0 | 10.0 | 0.00 | 0.18 | 0.18 | 73 | 1015.0 |
| 20260905202403 | 75 | 178 | 3.0 | 8.0 | 0.00 | 0.18 | 0.18 | 74 | 1014.9 |
| 20260905202203 | 75 | 177 | 3.0 | 7.0 | 0.00 | 0.18 | 0.18 | 74 | 1015.0 |
| 20260905202003 | 75 | 177 | 3.0 | 7.0 | 0.00 | 0.18 | 0.18 | 74 | 1014.9 |
| 20260905201803 | 75 | 175 | 4.0 | 9.0 | 0.00 | 0.18 | 0.18 | 74 | 1014.9 |
| 20260905201603 | 75 | 177 | 5.0 | 11.0 | 0.00 | 0.18 | 0.18 | 74 | 1014.9 |
| 20260905201403 | 75 | 174 | 5.0 | 11.0 | 0.00 | 0.18 | 0.18 | 73 | 1014.9 |
| 20260905201203 | 75 | 174 | 5.0 | 11.0 | 0.00 | 0.18 | 0.18 | 73 | 1015.0 |
| 20260905201003 | 75 | 174 | 5.0 | 11.0 | 0.00 | 0.18 | 0.18 | 73 | 1015.0 |
| 20260905200803 | 76 | 173 | 5.0 | 11.0 | 0.00 | 0.18 | 0.18 | 73 | 1014.9 |
| 20260905200603 | 76 | 172 | 5.0 | 9.0 | 0.00 | 0.18 | 0.18 | 73 | 1015.0 |
| 20260905200403 | 76 | 173 | 4.0 | 8.0 | 0.00 | 0.18 | 0.18 | 73 | 1015.0 |
| 20260905200203 | 76 | 174 | 4.0 | 8.0 | 0.00 | 0.18 | 0.18 | 73 | 1015.0 |
| 20260905200003 | 76 | 173 | 4.0 | 8.0 | 0.00 | 0.18 | 0.18 | 73 | 1015.0 |
| 20260905195803 | 76 | 175 | 4.0 | 8.0 | 0.00 | 0.18 | 0.18 | 73 | 1015.0 |
| 20260905195603 | 76 | 175 | 4.0 | 8.0 | 0.00 | 0.18 | 0.18 | 73 | 1014.9 |
| 20260905195403 | 76 | 176 | 4.0 | 10.0 | 0.00 | 0.18 | 0.18 | 73 | 1014.9 |
| 20260905195203 | 76 | 175 | 4.0 | 10.0 | 0.00 | 0.18 | 0.18 | 73 | 1014.9 |
| 20260905195004 | 76 | 175 | 4.0 | 10.0 | 0.00 | 0.18 | 0.18 | 72 | 1014.9 |
| 20260905194803 | 76 | 172 | 4.0 | 10.0 | 0.00 | 0.18 | 0.18 | 72 | 1015.0 |
| 20260905194603 | 76 | 170 | 4.0 | 10.0 | 0.00 | 0.18 | 0.18 | 72 | 1015.0 |
| 20260905194403 | 76 | 170 | 4.0 | 7.0 | 0.00 | 0.18 | 0.18 | 72 | 1015.0 |
| 20260905194203 | 76 | 173 | 4.0 | 7.0 | 0.00 | 0.18 | 0.18 | 72 | 1014.9 |
| 20260905194003 | 76 | 173 | 4.0 | 7.0 | 0.00 | 0.18 | 0.18 | 72 | 1014.9 |
| 20260905193803 | 76 | 180 | 4.0 | 10.0 | 0.00 | 0.18 | 0.18 | 73 | 1014.9 |
| 20260905193603 | 76 | 180 | 4.0 | 10.0 | 0.00 | 0.18 | 0.18 | 73 | 1014.9 |
| 20260905193403 | 76 | 182 | 4.0 | 10.0 | 0.00 | 0.18 | 0.18 | 72 | 1014.9 |
| 20260905193203 | 76 | 183 | 4.0 | 10.0 | 0.00 | 0.18 | 0.18 | 72 | 1014.9 |
| 20260905193024 | 76 | 184 | 4.0 | 10.0 | 0.00 | 0.18 | 0.18 | 73 | 1014.9 |
| 20260905192803 | 76 | 183 | 4.0 | 7.0 | 0.00 | 0.18 | 0.18 | 73 | 1014.9 |
| 20260905192603 | 76 | 184 | 4.0 | 7.0 | 0.00 | 0.18 | 0.18 | 73 | 1014.9 |
| 20260905192403 | 76 | 181 | 4.0 | 6.0 | 0.00 | 0.18 | 0.18 | 73 | 1015.0 |
| 20260905192203 | 76 | 180 | 3.0 | 6.0 | 0.00 | 0.18 | 0.18 | 73 | 1015.0 |
| 20260905192003 | 76 | 179 | 3.0 | 6.0 | 0.00 | 0.18 | 0.18 | 73 | 1015.0 |
| 20260905191803 | 76 | 179 | 3.0 | 7.0 | 0.00 | 0.18 | 0.18 | 73 | 1015.0 |
| 20260905191603 | 76 | 178 | 3.0 | 7.0 | 0.00 | 0.18 | 0.18 | 73 | 1015.0 |
| 20260905191403 | 76 | 179 | 4.0 | 7.0 | 0.00 | 0.18 | 0.18 | 74 | 1015.1 |
| 20260905191203 | 76 | 179 | 4.0 | 7.0 | 0.00 | 0.18 | 0.18 | 73 | 1015.1 |
| 20260905191003 | 76 | 180 | 5.0 | 10.0 | 0.00 | 0.18 | 0.18 | 73 | 1015.1 |
| 20260905190803 | 76 | 180 | 5.0 | 10.0 | 0.00 | 0.18 | 0.18 | 73 | 1015.0 |
| 20260905190603 | 76 | 180 | 5.0 | 10.0 | 0.00 | 0.18 | 0.18 | 73 | 1015.0 |
| 20260905190403 | 76 | 181 | 5.0 | 10.0 | 0.00 | 0.18 | 0.18 | 73 | 1015.0 |
| 20260905190203 | 76 | 182 | 5.0 | 10.0 | 0.00 | 0.18 | 0.18 | 72 | 1015.0 |
| 20260905190003 | 76 | 180 | 5.0 | 9.0 | 0.00 | 0.18 | 0.18 | 73 | 1015.0 |
| 20260905185824 | 76 | 178 | 4.0 | 9.0 | 0.00 | 0.18 | 0.18 | 73 | 1015.0 |
| 20260905185603 | 77 | 177 | 4.0 | 9.0 | 0.00 | 0.18 | 0.18 | 73 | 1015.0 |
| 20260905185403 | 77 | 176 | 4.0 | 8.0 | 0.00 | 0.18 | 0.18 | 72 | 1015.0 |
| 20260905185203 | 77 | 174 | 4.0 | 8.0 | 0.00 | 0.18 | 0.18 | 73 | 1015.0 |
| 20260905185003 | 77 | 175 | 4.0 | 8.0 | 0.00 | 0.18 | 0.18 | 73 | 1015.0 |
| 20260905184803 | 77 | 178 | 4.0 | 9.0 | 0.00 | 0.18 | 0.18 | 72 | 1015.0 |
| 20260905184603 | 77 | 179 | 4.0 | 9.0 | 0.00 | 0.18 | 0.18 | 72 | 1015.0 |
| 20260905184403 | 77 | 179 | 4.0 | 9.0 | 0.00 | 0.18 | 0.18 | 72 | 1015.0 |
| 20260905184203 | 77 | 181 | 3.0 | 9.0 | 0.00 | 0.18 | 0.18 | 72 | 1015.0 |
| 20260905184003 | 77 | 182 | 3.0 | 9.0 | 0.00 | 0.18 | 0.18 | 71 | 1015.0 |
| 20260905183803 | 77 | 184 | 3.0 | 5.0 | 0.00 | 0.18 | 0.18 | 71 | 1015.0 |
| 20260905183603 | 77 | 183 | 2.0 | 5.0 | 0.00 | 0.18 | 0.18 | 71 | 1015.0 |
| 20260905183424 | 77 | 182 | 2.0 | 5.0 | 0.00 | 0.18 | 0.18 | 72 | 1015.0 |
| 20260905183203 | 77 | 180 | 3.0 | 5.0 | 0.00 | 0.18 | 0.18 | 71 | 1015.0 |
| 20260905183003 | 77 | 180 | 3.0 | 7.0 | 0.00 | 0.18 | 0.18 | 71 | 1015.0 |
| 20260905182803 | 77 | 172 | 3.0 | 7.0 | 0.00 | 0.18 | 0.18 | 71 | 1015.0 |
| 20260905182603 | 77 | 172 | 4.0 | 7.0 | 0.00 | 0.18 | 0.18 | 71 | 1015.0 |
| 20260905182424 | 77 | 172 | 4.0 | 7.0 | 0.00 | 0.18 | 0.18 | 71 | 1015.0 |
| 20260905182203 | 78 | 173 | 4.0 | 7.0 | 0.00 | 0.18 | 0.18 | 70 | 1015.0 |
| 20260905182003 | 78 | 168 | 4.0 | 7.0 | 0.00 | 0.18 | 0.18 | 70 | 1015.0 |
| 20260905181803 | 78 | 174 | 3.0 | 7.0 | 0.00 | 0.18 | 0.18 | 70 | 1015.0 |
| 20260905181603 | 78 | 176 | 3.0 | 7.0 | 0.00 | 0.18 | 0.18 | 70 | 1015.1 |
| 20260905181403 | 78 | 178 | 2.0 | 6.0 | 0.00 | 0.18 | 0.18 | 69 | 1015.1 |
| 20260905181203 | 78 | 178 | 2.0 | 6.0 | 0.00 | 0.18 | 0.18 | 70 | 1015.1 |
| 20260905181024 | 78 | 181 | 2.0 | 5.0 | 0.00 | 0.18 | 0.18 | 69 | 1015.1 |
| 20260905180824 | 78 | 175 | 2.0 | 5.0 | 0.00 | 0.18 | 0.18 | 69 | 1015.0 |
| 20260905180624 | 78 | 173 | 2.0 | 8.0 | 0.00 | 0.18 | 0.18 | 68 | 1015.0 |
| 20260905180403 | 78 | 171 | 3.0 | 8.0 | 0.00 | 0.18 | 0.18 | 68 | 1015.0 |
| 20260905180203 | 78 | 170 | 3.0 | 8.0 | 0.00 | 0.19 | 0.18 | 69 | 1015.0 |
| 20260905180004 | 79 | 173 | 3.0 | 8.0 | 0.00 | 0.19 | 0.18 | 69 | 1015.0 |
| 20260905175803 | 79 | 174 | 2.0 | 8.0 | 0.00 | 0.19 | 0.18 | 69 | 1015.0 |
| 20260905175603 | 79 | 181 | 1.0 | 7.0 | 0.00 | 0.19 | 0.18 | 69 | 1014.9 |
| 20260905175404 | 79 | 184 | 1.0 | 4.0 | 0.00 | 0.19 | 0.18 | 68 | 1015.0 |
| 20260905175203 | 79 | 162 | 1.0 | 3.0 | 0.00 | 0.19 | 0.18 | 69 | 1015.0 |
| 20260905175003 | 79 | 141 | 1.0 | 3.0 | 0.00 | 0.19 | 0.18 | 69 | 1015.1 |
| 20260905174803 | 78 | 134 | 1.0 | 3.0 | 0.00 | 0.19 | 0.18 | 69 | 1015.0 |
| 20260905174603 | 78 | 138 | 2.0 | 5.0 | 0.00 | 0.19 | 0.18 | 70 | 1015.0 |
| 20260905174403 | 78 | 148 | 2.0 | 6.0 | 0.00 | 0.19 | 0.18 | 71 | 1015.0 |
| 20260905174203 | 78 | 155 | 2.0 | 6.0 | 0.00 | 0.19 | 0.18 | 71 | 1015.0 |
| 20260905174003 | 78 | 166 | 2.0 | 6.0 | 0.00 | 0.19 | 0.18 | 70 | 1014.9 |
| 20260905173803 | 78 | 175 | 3.0 | 7.0 | 0.00 | 0.19 | 0.18 | 70 | 1015.0 |
| 20260905173603 | 78 | 180 | 2.0 | 7.0 | 0.00 | 0.19 | 0.18 | 70 | 1015.0 |
| 20260905173403 | 78 | 181 | 2.0 | 7.0 | 0.00 | 0.19 | 0.18 | 70 | 1015.0 |
| 20260905173203 | 78 | 180 | 2.0 | 7.0 | 0.00 | 0.19 | 0.18 | 69 | 1015.1 |
| 20260905173003 | 78 | 180 | 1.0 | 7.0 | 0.00 | 0.19 | 0.18 | 69 | 1015.1 |
| 20260905172803 | 78 | 187 | 0.0 | 4.0 | 0.00 | 0.19 | 0.18 | 69 | 1015.2 |
| 20260905172603 | 78 | 184 | 0.0 | 3.0 | 0.00 | 0.19 | 0.18 | 69 | 1015.2 |
| 20260905172403 | 78 | 166 | 1.0 | 4.0 | 0.00 | 0.19 | 0.18 | 70 | 1015.3 |
| 20260905172224 | 78 | 170 | 1.0 | 5.0 | 0.00 | 0.19 | 0.18 | 69 | 1015.3 |
| 20260905172003 | 78 | 171 | 1.0 | 5.0 | 0.00 | 0.19 | 0.18 | 69 | 1015.3 |
| 20260905171803 | 78 | 201 | 1.0 | 5.0 | 0.00 | 0.19 | 0.18 | 69 | 1015.3 |
| 20260905171603 | 78 | 257 | 1.0 | 5.0 | 0.00 | 0.19 | 0.18 | 69 | 1015.3 |
| 20260905171403 | 78 | 277 | 1.0 | 5.0 | 0.00 | 0.20 | 0.18 | 70 | 1015.3 |
| 20260905171203 | 78 | 287 | 1.0 | 5.0 | 0.00 | 0.20 | 0.18 | 70 | 1015.3 |
| 20260905171024 | 78 | 284 | 1.0 | 5.0 | 0.00 | 0.20 | 0.18 | 70 | 1015.3 |
| 20260905170803 | 78 | 258 | 1.0 | 5.0 | 0.00 | 0.20 | 0.18 | 71 | 1015.3 |
| 20260905170603 | 78 | 214 | 1.0 | 5.0 | 0.00 | 0.20 | 0.18 | 71 | 1015.3 |
| 20260905170403 | 77 | 218 | 1.0 | 5.0 | 0.00 | 0.20 | 0.18 | 71 | 1015.4 |
| 20260905170203 | 77 | 188 | 2.0 | 5.0 | 0.00 | 0.21 | 0.18 | 72 | 1015.4 |
| 20260905170003 | 77 | 183 | 2.0 | 5.0 | 0.00 | 0.22 | 0.18 | 71 | 1015.4 |
| 20260905165803 | 77 | 225 | 2.0 | 4.0 | 0.00 | 0.24 | 0.18 | 72 | 1015.4 |
| 20260905165603 | 77 | 234 | 2.0 | 4.0 | 0.00 | 0.32 | 0.18 | 72 | 1015.3 |
| 20260905165424 | 77 | 258 | 2.0 | 5.0 | 0.00 | 0.37 | 0.18 | 72 | 1015.3 |
| 20260905165224 | 76 | 293 | 1.0 | 5.0 | 0.00 | 0.38 | 0.18 | 72 | 1015.3 |
| 20260905165003 | 76 | 291 | 1.0 | 5.0 | 0.00 | 0.42 | 0.18 | 74 | 1015.4 |
| 20260905164803 | 76 | 282 | 1.0 | 5.0 | 0.00 | 0.44 | 0.18 | 74 | 1015.4 |
| 20260905164603 | 75 | 274 | 1.0 | 5.0 | 0.00 | 0.44 | 0.18 | 75 | 1015.4 |
| 20260905164403 | 75 | 223 | 1.0 | 4.0 | 0.00 | 0.44 | 0.18 | 75 | 1015.4 |
| 20260905164203 | 75 | 196 | 1.0 | 7.0 | 0.00 | 0.44 | 0.18 | 74 | 1015.4 |
| 20260905164024 | 75 | 194 | 2.0 | 7.0 | 0.00 | 0.44 | 0.18 | 75 | 1015.4 |
| 20260905163803 | 74 | 181 | 2.0 | 7.0 | 0.00 | 0.44 | 0.18 | 75 | 1015.3 |
| 20260905163603 | 74 | 181 | 2.0 | 7.0 | 0.00 | 0.44 | 0.18 | 75 | 1015.3 |
| 20260905163403 | 74 | 181 | 2.0 | 7.0 | 0.00 | 0.44 | 0.18 | 75 | 1015.3 |
| 20260905163203 | 74 | 182 | 2.0 | 7.0 | 0.00 | 0.44 | 0.18 | 75 | 1015.2 |
| 20260905163003 | 74 | 182 | 1.0 | 7.0 | 0.00 | 0.44 | 0.18 | 75 | 1015.4 |
| 20260905162803 | 74 | 184 | 1.0 | 5.0 | 0.00 | 0.44 | 0.18 | 74 | 1015.4 |
| 20260905162603 | 74 | 185 | 1.0 | 4.0 | 0.00 | 0.44 | 0.18 | 75 | 1015.4 |
| 20260905162424 | 74 | 186 | 1.0 | 5.0 | 0.00 | 0.44 | 0.18 | 75 | 1015.4 |
| 20260905162203 | 74 | 185 | 2.0 | 5.0 | 0.00 | 0.44 | 0.18 | 75 | 1015.4 |
| 20260905162003 | 74 | 181 | 2.0 | 5.0 | 0.00 | 0.44 | 0.18 | 75 | 1015.3 |
| 20260905161803 | 74 | 180 | 3.0 | 5.0 | 0.00 | 0.44 | 0.18 | 75 | 1015.3 |
| 20260905161603 | 74 | 180 | 3.0 | 5.0 | 0.00 | 0.44 | 0.18 | 75 | 1015.3 |
| 20260905161424 | 74 | 179 | 3.0 | 6.0 | 0.00 | 0.44 | 0.18 | 75 | 1015.3 |
| 20260905161203 | 74 | 178 | 2.0 | 6.0 | 0.00 | 0.44 | 0.18 | 75 | 1015.3 |
| 20260905161003 | 74 | 180 | 2.0 | 6.0 | 0.00 | 0.44 | 0.18 | 75 | 1015.4 |
| 20260905160803 | 75 | 184 | 1.0 | 6.0 | 0.00 | 0.44 | 0.18 | 74 | 1015.3 |
| 20260905160603 | 75 | 185 | 1.0 | 6.0 | 0.00 | 0.44 | 0.18 | 74 | 1015.3 |
| 20260905160403 | 75 | 189 | 1.0 | 5.0 | 0.00 | 0.44 | 0.18 | 74 | 1015.3 |
| 20260905160203 | 75 | 190 | 1.0 | 5.0 | 0.00 | 0.44 | 0.18 | 74 | 1015.3 |
| 20260905160003 | 75 | 189 | 1.0 | 5.0 | 0.00 | 0.44 | 0.18 | 74 | 1015.3 |
| 20260905155803 | 75 | 187 | 1.0 | 4.0 | 0.00 | 0.44 | 0.18 | 75 | 1015.3 |
| 20260905155603 | 74 | 181 | 1.0 | 7.0 | 0.00 | 0.44 | 0.18 | 74 | 1015.3 |
| 20260905155403 | 74 | 182 | 1.0 | 7.0 | 0.00 | 0.44 | 0.18 | 74 | 1015.3 |
| 20260905155224 | 74 | 195 | 1.0 | 7.0 | 0.00 | 0.44 | 0.18 | 75 | 1015.3 |
| 20260905155003 | 74 | 196 | 1.0 | 7.0 | 0.00 | 0.44 | 0.18 | 74 | 1015.3 |
| 20260905154824 | 74 | 189 | 2.0 | 7.0 | 0.00 | 0.44 | 0.18 | 74 | 1015.3 |
| 20260905154603 | 74 | 225 | 2.0 | 6.0 | 0.00 | 0.44 | 0.18 | 75 | 1015.2 |
| 20260905154403 | 74 | 209 | 2.0 | 6.0 | 0.00 | 0.44 | 0.18 | 75 | 1015.2 |
| 20260905154203 | 74 | 193 | 1.0 | 6.0 | 0.00 | 0.44 | 0.18 | 75 | 1015.3 |
| 20260905154003 | 74 | 195 | 1.0 | 6.0 | 0.00 | 0.44 | 0.18 | 75 | 1015.4 |
| 20260905153803 | 74 | 197 | 1.0 | 5.0 | 0.00 | 0.44 | 0.18 | 75 | 1015.4 |
| 20260905153624 | 74 | 185 | 1.0 | 5.0 | 0.00 | 0.44 | 0.18 | 75 | 1015.3 |
| 20260905153424 | 74 | 185 | 1.0 | 5.0 | 0.00 | 0.44 | 0.18 | 77 | 1015.3 |
| 20260905153204 | 73 | 186 | 2.0 | 8.0 | 0.00 | 0.44 | 0.18 | 76 | 1015.3 |
| 20260905153024 | 73 | 188 | 3.0 | 8.0 | 0.00 | 0.44 | 0.18 | 76 | 1015.3 |
| 20260905152803 | 73 | 192 | 3.0 | 8.0 | 0.00 | 0.44 | 0.18 | 77 | 1015.2 |
| 20260905152603 | 73 | 190 | 3.0 | 8.0 | 0.00 | 0.44 | 0.18 | 76 | 1015.1 |
| 20260905152403 | 73 | 189 | 2.0 | 8.0 | 0.00 | 0.44 | 0.18 | 76 | 1015.2 |
| 20260905152203 | 73 | 184 | 2.0 | 6.0 | 0.00 | 0.44 | 0.18 | 76 | 1015.3 |
| 20260905152024 | 73 | 183 | 2.0 | 6.0 | 0.00 | 0.44 | 0.18 | 76 | 1015.3 |
| 20260905151803 | 73 | 175 | 1.0 | 6.0 | 0.00 | 0.44 | 0.18 | 76 | 1015.4 |
| 20260905151603 | 73 | 175 | 1.0 | 5.0 | 0.00 | 0.44 | 0.18 | 76 | 1015.4 |
| 20260905151403 | 73 | 177 | 1.0 | 5.0 | 0.00 | 0.44 | 0.18 | 76 | 1015.3 |
| 20260905151203 | 73 | 184 | 1.0 | 4.0 | 0.00 | 0.44 | 0.18 | 76 | 1015.3 |
| 20260905151024 | 73 | 197 | 1.0 | 6.0 | 0.00 | 0.44 | 0.18 | 77 | 1015.3 |
| 20260905150803 | 73 | 197 | 1.0 | 6.0 | 0.00 | 0.44 | 0.18 | 77 | 1015.3 |
| 20260905150603 | 73 | 197 | 1.0 | 6.0 | 0.00 | 0.44 | 0.18 | 77 | 1015.2 |
| 20260905150403 | 73 | 193 | 1.0 | 6.0 | 0.00 | 0.44 | 0.18 | 77 | 1015.1 |
| 20260905150203 | 73 | 206 | 1.0 | 6.0 | 0.00 | 0.44 | 0.18 | 77 | 1015.1 |
| 20260905150003 | 73 | 183 | 1.0 | 4.0 | 0.00 | 0.44 | 0.18 | 77 | 1015.0 |
| 20260905145803 | 73 | 182 | 1.0 | 4.0 | 0.00 | 0.44 | 0.18 | 77 | 1015.0 |
| 20260905145624 | 73 | 181 | 1.0 | 5.0 | 0.00 | 0.44 | 0.18 | 77 | 1015.0 |
| 20260905145424 | 72 | 179 | 2.0 | 5.0 | 0.00 | 0.44 | 0.18 | 77 | 1015.0 |
| 20260905145203 | 72 | 180 | 2.0 | 5.0 | 0.00 | 0.44 | 0.18 | 78 | 1014.9 |
| 20260905145003 | 72 | 179 | 3.0 | 6.0 | 0.00 | 0.44 | 0.18 | 78 | 1015.0 |
| 20260905144803 | 72 | 176 | 3.0 | 6.0 | 0.00 | 0.44 | 0.18 | 78 | 1015.0 |
| 20260905144603 | 72 | 177 | 3.0 | 6.0 | 0.00 | 0.44 | 0.18 | 78 | 1015.0 |
| 20260905144403 | 72 | 179 | 2.0 | 6.0 | 0.00 | 0.44 | 0.18 | 78 | 1015.0 |
| 20260905144203 | 72 | 177 | 2.0 | 6.0 | 0.00 | 0.44 | 0.18 | 78 | 1015.0 |
| 20260905144003 | 72 | 179 | 1.0 | 6.0 | 0.00 | 0.44 | 0.18 | 78 | 1015.0 |
| 20260905143803 | 72 | 193 | 1.0 | 6.0 | 0.00 | 0.44 | 0.18 | 78 | 1015.1 |
| 20260905143603 | 72 | 197 | 1.0 | 3.0 | 0.00 | 0.44 | 0.18 | 80 | 1015.0 |
| 20260905143403 | 72 | 187 | 1.0 | 3.0 | 0.00 | 0.45 | 0.18 | 79 | 1015.1 |
| 20260905143224 | 72 | 186 | 1.0 | 5.0 | 0.00 | 0.45 | 0.18 | 80 | 1015.0 |
| 20260905143024 | 72 | 182 | 2.0 | 6.0 | 0.00 | 0.45 | 0.18 | 80 | 1015.0 |
| 20260905142803 | 71 | 182 | 2.0 | 8.0 | 0.00 | 0.46 | 0.18 | 80 | 1015.0 |
| 20260905142603 | 71 | 183 | 2.0 | 8.0 | 0.00 | 0.47 | 0.18 | 80 | 1015.0 |
| 20260905142403 | 71 | 181 | 2.0 | 8.0 | 0.00 | 0.48 | 0.18 | 79 | 1015.0 |
| 20260905142203 | 71 | 180 | 2.0 | 8.0 | 0.00 | 0.49 | 0.18 | 80 | 1015.0 |
| 20260905142003 | 71 | 182 | 2.0 | 8.0 | 0.00 | 0.52 | 0.18 | 81 | 1015.0 |
| 20260905141803 | 71 | 183 | 3.0 | 7.0 | 0.00 | 0.54 | 0.18 | 81 | 1015.0 |
| 20260905141624 | 71 | 182 | 3.0 | 7.0 | 0.00 | 0.54 | 0.18 | 81 | 1015.0 |
| 20260905141403 | 71 | 182 | 3.0 | 7.0 | 0.00 | 0.54 | 0.18 | 81 | 1015.0 |
| 20260905141203 | 70 | 182 | 3.0 | 7.0 | 0.00 | 0.54 | 0.18 | 80 | 1014.9 |
| 20260905141024 | 71 | 182 | 2.0 | 5.0 | 0.00 | 0.54 | 0.18 | 81 | 1014.9 |
| 20260905140824 | 70 | 181 | 2.0 | 5.0 | 0.00 | 0.54 | 0.18 | 81 | 1014.9 |
| 20260905140603 | 70 | 179 | 1.0 | 5.0 | 0.00 | 0.54 | 0.18 | 81 | 1014.8 |
| 20260905140403 | 70 | 181 | 1.0 | 5.0 | 0.00 | 0.54 | 0.18 | 82 | 1014.8 |
| 20260905140203 | 70 | 181 | 1.0 | 4.0 | 0.00 | 0.54 | 0.18 | 82 | 1014.8 |
| 20260905140004 | 70 | 181 | 1.0 | 4.0 | 0.00 | 0.54 | 0.18 | 82 | 1014.8 |
| 20260905135803 | 70 | 181 | 1.0 | 4.0 | 0.00 | 0.54 | 0.18 | 82 | 1014.8 |
| 20260905135603 | 70 | 181 | 1.0 | 4.0 | 0.00 | 0.54 | 0.18 | 82 | 1014.8 |
| 20260905135403 | 70 | 180 | 1.0 | 4.0 | 0.00 | 0.54 | 0.18 | 82 | 1014.8 |
| 20260905135203 | 70 | 179 | 1.0 | 3.0 | 0.00 | 0.54 | 0.18 | 82 | 1014.8 |
| 20260905135003 | 70 | 179 | 1.0 | 4.0 | 0.00 | 0.54 | 0.18 | 82 | 1014.8 |
| 20260905134803 | 70 | 181 | 1.0 | 4.0 | 0.00 | 0.54 | 0.18 | 82 | 1014.8 |
| 20260905134603 | 70 | 181 | 1.0 | 4.0 | 0.00 | 0.54 | 0.18 | 82 | 1014.8 |
| 20260905134403 | 70 | 182 | 1.0 | 4.0 | 0.00 | 0.54 | 0.18 | 82 | 1014.8 |
| 20260905134203 | 70 | 183 | 1.0 | 4.0 | 0.00 | 0.54 | 0.18 | 82 | 1014.7 |
| 20260905134003 | 70 | 184 | 1.0 | 4.0 | 0.00 | 0.54 | 0.18 | 82 | 1014.7 |
| 20260905133803 | 70 | 185 | 1.0 | 4.0 | 0.00 | 0.54 | 0.18 | 82 | 1014.7 |
| 20260905133603 | 69 | 186 | 2.0 | 5.0 | 0.00 | 0.54 | 0.18 | 82 | 1014.7 |
| 20260905133403 | 69 | 186 | 2.0 | 5.0 | 0.00 | 0.54 | 0.18 | 82 | 1014.7 |
| 20260905133203 | 69 | 185 | 2.0 | 5.0 | 0.00 | 0.54 | 0.18 | 82 | 1014.7 |
| 20260905133024 | 69 | 184 | 2.0 | 5.0 | 0.00 | 0.54 | 0.18 | 82 | 1014.7 |
| 20260905132803 | 69 | 183 | 2.0 | 5.0 | 0.00 | 0.54 | 0.18 | 82 | 1014.7 |
| 20260905132603 | 69 | 182 | 2.0 | 5.0 | 0.00 | 0.54 | 0.18 | 82 | 1014.7 |
| 20260905132424 | 69 | 181 | 2.0 | 5.0 | 0.00 | 0.54 | 0.18 | 82 | 1014.7 |
| 20260905132203 | 69 | 182 | 2.0 | 5.0 | 0.00 | 0.54 | 0.18 | 82 | 1014.7 |
| 20260905132003 | 69 | 184 | 2.0 | 5.0 | 0.00 | 0.54 | 0.18 | 82 | 1014.7 |
| 20260905131803 | 69 | 185 | 1.0 | 5.0 | 0.00 | 0.54 | 0.18 | 82 | 1014.7 |
| 20260905131603 | 69 | 186 | 1.0 | 4.0 | 0.00 | 0.54 | 0.18 | 82 | 1014.7 |
| 20260905131403 | 69 | 188 | 1.0 | 5.0 | 0.00 | 0.54 | 0.18 | 82 | 1014.7 |
| 20260905131203 | 69 | 188 | 1.0 | 7.0 | 0.00 | 0.54 | 0.18 | 82 | 1014.7 |
| 20260905131003 | 69 | 188 | 1.0 | 7.0 | 0.00 | 0.54 | 0.18 | 82 | 1014.7 |
| 20260905130803 | 69 | 184 | 2.0 | 7.0 | 0.00 | 0.54 | 0.18 | 82 | 1014.7 |
| 20260905130624 | 69 | 184 | 2.0 | 7.0 | 0.00 | 0.54 | 0.18 | 82 | 1014.7 |
| 20260905130403 | 69 | 184 | 2.0 | 7.0 | 0.00 | 0.54 | 0.18 | 82 | 1014.7 |
| 20260905130203 | 69 | 183 | 3.0 | 7.0 | 0.00 | 0.54 | 0.18 | 82 | 1014.8 |
| 20260905130003 | 69 | 184 | 4.0 | 7.0 | 0.00 | 0.55 | 0.18 | 82 | 1014.8 |
| 20260905125803 | 69 | 186 | 4.0 | 7.0 | 0.00 | 0.55 | 0.18 | 82 | 1014.8 |
| 20260905125603 | 69 | 187 | 3.0 | 7.0 | 0.00 | 0.55 | 0.18 | 82 | 1014.8 |
| 20260905125403 | 69 | 186 | 4.0 | 9.0 | 0.00 | 0.55 | 0.18 | 82 | 1014.8 |
| 20260905125203 | 69 | 182 | 4.0 | 9.0 | 0.00 | 0.55 | 0.18 | 82 | 1014.8 |
| 20260905125003 | 69 | 182 | 3.0 | 9.0 | 0.00 | 0.55 | 0.18 | 82 | 1014.8 |
| 20260905124803 | 69 | 179 | 4.0 | 9.0 | 0.00 | 0.55 | 0.18 | 82 | 1014.8 |
| 20260905124603 | 69 | 177 | 3.0 | 9.0 | 0.00 | 0.55 | 0.18 | 82 | 1014.8 |
| 20260905124403 | 69 | 174 | 2.0 | 8.0 | 0.00 | 0.55 | 0.18 | 82 | 1014.7 |
| 20260905124203 | 69 | 181 | 2.0 | 8.0 | 0.00 | 0.55 | 0.18 | 82 | 1014.7 |
| 20260905124003 | 69 | 180 | 2.0 | 6.0 | 0.00 | 0.55 | 0.18 | 82 | 1014.7 |
| 20260905123803 | 69 | 183 | 2.0 | 6.0 | 0.00 | 0.57 | 0.18 | 82 | 1014.7 |
| 20260905123603 | 69 | 184 | 2.0 | 5.0 | 0.00 | 0.58 | 0.18 | 82 | 1014.7 |
| 20260905123403 | 69 | 182 | 3.0 | 5.0 | 0.00 | 0.59 | 0.18 | 82 | 1014.7 |
| 20260905123203 | 69 | 180 | 3.0 | 5.0 | 0.00 | 0.59 | 0.18 | 82 | 1014.7 |
| 20260905123003 | 69 | 180 | 3.0 | 7.0 | 0.00 | 0.59 | 0.18 | 82 | 1014.7 |
| 20260905122803 | 69 | 180 | 3.0 | 7.0 | 0.00 | 0.59 | 0.18 | 82 | 1014.6 |
| 20260905122603 | 69 | 181 | 3.0 | 7.0 | 0.00 | 0.59 | 0.18 | 82 | 1014.6 |
| 20260905122403 | 69 | 183 | 3.0 | 7.0 | 0.00 | 0.59 | 0.18 | 82 | 1014.6 |
| 20260905122224 | 69 | 183 | 3.0 | 7.0 | 0.00 | 0.59 | 0.18 | 82 | 1014.6 |
| 20260905122003 | 68 | 182 | 3.0 | 7.0 | 0.00 | 0.59 | 0.18 | 82 | 1014.6 |
| 20260905121824 | 68 | 183 | 3.0 | 7.0 | 0.00 | 0.59 | 0.18 | 82 | 1014.5 |
| 20260905121603 | 68 | 183 | 2.0 | 6.0 | 0.00 | 0.59 | 0.18 | 82 | 1014.5 |
| 20260905121403 | 68 | 182 | 1.0 | 6.0 | 0.00 | 0.59 | 0.18 | 82 | 1014.5 |
| 20260905121203 | 68 | 181 | 1.0 | 4.0 | 0.00 | 0.59 | 0.18 | 82 | 1014.3 |
| 20260905121003 | 68 | 183 | 0.0 | 3.0 | 0.00 | 0.59 | 0.18 | 82 | 1014.3 |
| 20260905120804 | 68 | 183 | 0.0 | 3.0 | 0.00 | 0.59 | 0.18 | 82 | 1014.3 |
| 20260905120603 | 68 | 0 | 0.0 | 0.0 | 0.00 | 0.59 | 0.18 | 82 | 1014.2 |
| 20260905120424 | 68 | 0 | 0.0 | 0.0 | 0.00 | 0.59 | 0.18 | 82 | 1014.2 |
| 20260905120203 | 68 | 0 | 0.0 | 0.0 | 0.00 | 0.59 | 0.18 | 82 | 1014.1 |
| 20260905120024 | 68 | 0 | 0.0 | 0.0 | 0.00 | 0.59 | 0.18 | 82 | 1014.0 |
| 20260905115803 | 68 | 183 | 0.0 | 2.0 | 0.00 | 0.59 | 0.18 | 82 | 1014.0 |
| 20260905115603 | 68 | 183 | 0.0 | 3.0 | 0.00 | 0.59 | 0.18 | 82 | 1014.0 |
| 20260905115424 | 68 | 183 | 0.0 | 3.0 | 0.00 | 0.59 | 0.18 | 82 | 1014.0 |
| 20260905115203 | 68 | 183 | 0.0 | 3.0 | 0.00 | 0.59 | 0.18 | 82 | 1014.0 |
| 20260905115003 | 68 | 183 | 0.0 | 3.0 | 0.00 | 0.59 | 0.18 | 82 | 1013.9 |
| 20260905114803 | 68 | 183 | 0.0 | 3.0 | 0.00 | 0.59 | 0.18 | 82 | 1014.0 |
| 20260905114603 | 68 | 0 | 0.0 | 0.0 | 0.00 | 0.59 | 0.18 | 82 | 1013.9 |
| 20260905114424 | 68 | 0 | 0.0 | 0.0 | 0.00 | 0.59 | 0.18 | 82 | 1014.0 |
| 20260905114203 | 68 | 0 | 0.0 | 0.0 | 0.00 | 0.59 | 0.18 | 82 | 1013.9 |
| 20260905114003 | 68 | 0 | 0.0 | 0.0 | 0.00 | 0.59 | 0.18 | 82 | 1013.9 |
| 20260905113803 | 68 | 0 | 0.0 | 0.0 | 0.00 | 0.59 | 0.18 | 82 | 1014.0 |
| 20260905113603 | 68 | 0 | 0.0 | 0.0 | 0.00 | 0.59 | 0.18 | 82 | 1014.0 |
| 20260905113403 | 68 | 0 | 0.0 | 0.0 | 0.00 | 0.59 | 0.18 | 82 | 1013.9 |
| 20260905113203 | 68 | 0 | 0.0 | 0.0 | 0.00 | 0.59 | 0.18 | 82 | 1013.9 |
| 20260905113003 | 68 | 188 | 0.0 | 2.0 | 0.00 | 0.59 | 0.18 | 82 | 1013.9 |
| 20260905112803 | 68 | 188 | 0.0 | 2.0 | 0.00 | 0.59 | 0.18 | 81 | 1013.9 |
| 20260905112603 | 68 | 187 | 1.0 | 2.0 | 0.00 | 0.59 | 0.18 | 82 | 1013.9 |
| 20260905112403 | 68 | 187 | 1.0 | 3.0 | 0.00 | 0.59 | 0.18 | 81 | 1013.9 |
| 20260905112203 | 68 | 187 | 1.0 | 3.0 | 0.00 | 0.59 | 0.18 | 81 | 1013.8 |
| 20260905112003 | 68 | 187 | 1.0 | 3.0 | 0.00 | 0.59 | 0.18 | 81 | 1013.8 |